Time,TemperatureF,DewpointF,PressureIn,WindDirection,WindDirectionDegrees,WindSpeedMPH,WindSpeedGustMPH,Humidity,HourlyPrecipIn,Conditions,Clouds,dailyrainin,SoftwareType,DateUTC
2013-12-20 00:00:00,39.5,39.5,30.18,WSW,238,0.0,0.0,100,0.00,BKN,,0.00,WeatherDisplay:10.37,2013-12-20 05:00:00,
2013-12-20 00:01:00,39.5,39.5,30.18,WSW,238,0.0,0.0,100,0.00,BKN,,0.00,WeatherDisplay:10.37,2013-12-20 05:01:00,
2013-12-20 00:02:00,39.3,39.3,30.18,WSW,238,0.0,0.0,100,0.00,BKN,,0.00,WeatherDisplay:10.37,2013-12-20 05:02:00,
2013-12-20 00:06:00,39.1,39.1,30.18,WSW,238,0.0,0.0,100,0.00,BKN,,0.00,WeatherDisplay:10.37,2013-12-20 05:06:00,
2013-12-20 00:07:00,39.1,39.1,30.18,WSW,238,0.0,0.0,100,0.00,BKN,,0.00,WeatherDisplay:10.37,2013-12-20 05:07:00,
2013-12-20 00:11:00,39.0,39.0,30.18,WSW,238,0.0,0.0,100,0.00,BKN,,0.00,WeatherDisplay:10.37,2013-12-20 05:11:00,
2013-12-20 00:12:00,39.1,39.1,30.18,WSW,238,0.0,0.0,100,0.00,BKN,,0.00,WeatherDisplay:10.37,2013-12-20 05:12:00,
2013-12-20 00:13:00,39.1,39.1,30.18,WSW,238,0.0,0.0,100,0.00,BKN,,0.00,WeatherDisplay:10.37,2013-12-20 05:13:00,
2013-12-20 00:16:00,39.0,39.0,30.18,WSW,238,0.0,0.0,100,0.00,BKN,,0.00,WeatherDisplay:10.37,2013-12-20 05:16:00,
2013-12-20 00:17:00,39.0,39.0,30.18,WSW,238,0.0,0.0,100,0.00,BKN,,0.00,WeatherDisplay:10.37,2013-12-20 05:17:00,
2013-12-20 00:18:00,39.0,39.0,30.18,WSW,238,0.0,3.0,100,0.00,BKN,,0.00,WeatherDisplay:10.37,2013-12-20 05:18:00,
2013-12-20 00:21:00,38.6,38.6,30.18,WSW,238,1.7,2.3,100,0.00,BKN,,0.00,WeatherDisplay:10.37,2013-12-20 05:21:00,
2013-12-20 00:22:00,38.6,38.6,30.18,WSW,238,0.6,2.3,100,0.00,BKN,,0.00,WeatherDisplay:10.37,2013-12-20 05:22:00,
2013-12-20 00:23:00,38.6,38.6,30.18,WSW,238,0.0,0.0,100,0.00,BKN,,0.00,WeatherDisplay:10.37,2013-12-20 05:23:00,
2013-12-20 00:25:00,38.7,38.7,30.19,WSW,238,0.5,3.0,100,0.00,BKN,,0.00,WeatherDisplay:10.37,2013-12-20 05:25:00,
2013-12-20 00:26:00,38.6,38.6,30.19,WSW,238,2.0,3.5,100,0.00,BKN,,0.00,WeatherDisplay:10.37,2013-12-20 05:26:00,
2013-12-20 00:27:00,38.6,38.6,30.18,WSW,238,1.2,3.5,100,0.00,BKN,,0.00,WeatherDisplay:10.37,2013-12-20 05:27:00,
2013-12-20 00:28:00,38.7,38.7,30.18,WSW,238,0.0,2.3,100,0.00,BKN,,0.00,WeatherDisplay:10.37,2013-12-20 05:28:00,
2013-12-20 00:30:00,38.6,38.6,30.19,WSW,238,0.0,0.0,100,0.00,BKN,,0.00,WeatherDisplay:10.37,2013-12-20 05:30:00,
2013-12-20 00:31:00,38.6,38.6,30.19,WSW,238,0.0,0.0,100,0.00,BKN,,0.00,WeatherDisplay:10.37,2013-12-20 05:31:00,
2013-12-20 00:32:00,38.6,38.6,30.19,WSW,238,0.0,0.0,100,0.00,BKN,,0.00,WeatherDisplay:10.37,2013-12-20 05:32:00,
2013-12-20 00:33:00,38.5,38.5,30.19,WSW,238,1.5,3.5,100,0.00,BKN,,0.00,WeatherDisplay:10.37,2013-12-20 05:33:00,
2013-12-20 00:35:00,38.5,38.5,30.19,WSW,238,0.0,0.0,100,0.00,BKN,,0.00,WeatherDisplay:10.37,2013-12-20 05:35:00,
2013-12-20 00:37:00,38.5,38.5,30.19,WSW,238,0.0,0.0,100,0.00,BKN,,0.00,WeatherDisplay:10.37,2013-12-20 05:37:00,
2013-12-20 00:38:00,38.5,38.5,30.19,WSW,238,0.0,0.0,100,0.00,BKN,,0.00,WeatherDisplay:10.37,2013-12-20 05:38:00,
2013-12-20 00:39:00,38.5,38.5,30.19,WSW,238,0.0,0.0,100,0.00,BKN,,0.00,WeatherDisplay:10.37,2013-12-20 05:39:00,
2013-12-20 00:40:00,38.5,38.5,30.18,WSW,238,0.0,0.0,100,0.00,BKN,,0.00,WeatherDisplay:10.37,2013-12-20 05:40:00,
2013-12-20 00:42:00,38.4,38.4,30.19,WSW,238,0.0,0.0,100,0.00,BKN,,0.00,WeatherDisplay:10.37,2013-12-20 05:42:00,
2013-12-20 00:43:00,38.3,38.3,30.19,WSW,238,0.0,0.0,100,0.00,BKN,,0.00,WeatherDisplay:10.37,2013-12-20 05:43:00,
2013-12-20 00:45:00,38.1,38.1,30.19,WSW,238,0.0,0.0,100,0.00,BKN,,0.00,WeatherDisplay:10.37,2013-12-20 05:45:00,
2013-12-20 00:46:00,38.2,38.2,30.19,WSW,238,0.0,0.0,100,0.00,BKN,,0.00,WeatherDisplay:10.37,2013-12-20 05:46:00,
2013-12-20 00:47:00,38.2,38.2,30.19,WSW,238,0.0,0.0,100,0.00,BKN,,0.00,WeatherDisplay:10.37,2013-12-20 05:47:00,
2013-12-20 00:48:00,38.2,38.2,30.19,WSW,238,0.0,0.0,100,0.00,BKN,,0.00,WeatherDisplay:10.37,2013-12-20 05:48:00,
2013-12-20 00:51:00,38.1,38.1,30.19,WSW,238,0.0,0.0,100,0.00,BKN,,0.00,WeatherDisplay:10.37,2013-12-20 05:51:00,
2013-12-20 00:52:00,38.1,38.1,30.19,WSW,238,0.0,0.0,100,0.00,BKN,,0.00,WeatherDisplay:10.37,2013-12-20 05:52:00,
2013-12-20 00:53:00,38.0,38.0,30.19,WSW,238,0.0,0.0,100,0.00,BKN,,0.00,WeatherDisplay:10.37,2013-12-20 05:53:00,
2013-12-20 00:56:00,38.0,38.0,30.19,WSW,238,0.0,0.0,100,0.00,BKN,,0.00,WeatherDisplay:10.37,2013-12-20 05:56:00,
2013-12-20 00:57:00,38.0,38.0,30.19,WSW,238,0.0,0.0,100,0.00,BKN,,0.00,WeatherDisplay:10.37,2013-12-20 05:57:00,
2013-12-20 00:58:00,37.9,37.9,30.19,WSW,238,0.0,0.0,100,0.00,BKN,,0.00,WeatherDisplay:10.37,2013-12-20 05:58:00,
2013-12-20 00:59:00,37.9,37.9,30.19,WSW,238,0.0,0.0,100,0.00,BKN,,0.00,WeatherDisplay:10.37,2013-12-20 05:59:00,
2013-12-20 01:02:00,37.8,37.8,30.18,WSW,238,0.0,0.0,100,0.00,BKN,,0.00,WeatherDisplay:10.37,2013-12-20 06:02:00,
2013-12-20 01:03:00,37.8,37.8,30.19,WSW,238,0.0,0.0,100,0.00,BKN,,0.00,WeatherDisplay:10.37,2013-12-20 06:03:00,
2013-12-20 01:04:00,37.8,37.8,30.19,WSW,238,0.0,0.0,100,0.00,BKN,,0.00,WeatherDisplay:10.37,2013-12-20 06:04:00,
2013-12-20 01:07:00,37.6,37.6,30.19,WSW,238,0.0,0.0,100,0.00,BKN,,0.00,WeatherDisplay:10.37,2013-12-20 06:07:00,
2013-12-20 01:08:00,37.6,37.6,30.19,WSW,238,0.0,0.0,100,0.00,BKN,,0.00,WeatherDisplay:10.37,2013-12-20 06:08:00,
2013-12-20 01:09:00,37.6,37.6,30.19,WSW,238,0.0,0.0,100,0.00,BKN,,0.00,WeatherDisplay:10.37,2013-12-20 06:09:00,
2013-12-20 01:12:00,37.5,37.5,30.18,WSW,238,0.0,0.0,100,0.00,BKN,,0.00,WeatherDisplay:10.37,2013-12-20 06:12:00,
2013-12-20 01:13:00,37.4,37.4,30.18,WSW,238,0.0,0.0,100,0.00,BKN,,0.00,WeatherDisplay:10.37,2013-12-20 06:13:00,
2013-12-20 01:14:00,37.4,37.4,30.18,WSW,238,0.0,0.0,100,0.00,BKN,,0.00,WeatherDisplay:10.37,2013-12-20 06:14:00,
2013-12-20 01:17:00,37.4,37.4,30.18,WSW,238,0.0,0.0,100,0.00,BKN,,0.00,WeatherDisplay:10.37,2013-12-20 06:17:00,
2013-12-20 01:18:00,37.4,37.4,30.18,WSW,238,0.0,0.0,100,0.00,BKN,,0.00,WeatherDisplay:10.37,2013-12-20 06:18:00,
2013-12-20 01:19:00,37.4,37.4,30.18,WSW,238,0.0,1.0,100,0.00,BKN,,0.00,WeatherDisplay:10.37,2013-12-20 06:19:00,
2013-12-20 01:22:00,37.3,37.3,30.18,WSW,238,1.3,2.0,100,0.00,BKN,,0.00,WeatherDisplay:10.37,2013-12-20 06:22:00,
2013-12-20 01:23:00,37.3,37.3,30.18,WSW,238,1.7,3.5,100,0.00,BKN,,0.00,WeatherDisplay:10.37,2013-12-20 06:23:00,
2013-12-20 01:24:00,37.2,37.2,30.18,WSW,238,0.0,2.3,100,0.00,BKN,,0.00,WeatherDisplay:10.37,2013-12-20 06:24:00,
2013-12-20 01:25:00,37.2,37.2,30.18,WSW,238,0.0,0.0,100,0.00,BKN,,0.00,WeatherDisplay:10.37,2013-12-20 06:25:00,
2013-12-20 01:28:00,37.2,37.2,30.18,WSW,238,0.0,0.0,100,0.00,BKN,,0.00,WeatherDisplay:10.37,2013-12-20 06:28:00,
2013-12-20 01:29:00,37.2,37.2,30.18,WSW,238,0.0,0.0,100,0.00,BKN,,0.00,WeatherDisplay:10.37,2013-12-20 06:29:00,
2013-12-20 01:30:00,37.1,37.1,30.18,WSW,238,0.0,0.0,100,0.00,BKN,,0.00,WeatherDisplay:10.37,2013-12-20 06:30:00,
2013-12-20 01:31:00,37.1,37.1,30.18,WSW,238,0.1,1.0,100,0.00,BKN,,0.00,WeatherDisplay:10.37,2013-12-20 06:31:00,
2013-12-20 01:33:00,36.8,36.8,30.18,WSW,238,0.0,0.0,100,0.00,BKN,,0.00,WeatherDisplay:10.37,2013-12-20 06:33:00,
2013-12-20 01:34:00,36.8,36.8,30.17,WSW,238,0.0,0.0,100,0.00,BKN,,0.00,WeatherDisplay:10.37,2013-12-20 06:34:00,
2013-12-20 01:35:00,36.8,36.8,30.17,WSW,238,0.0,0.0,100,0.00,BKN,,0.00,WeatherDisplay:10.37,2013-12-20 06:35:00,
2013-12-20 01:36:00,36.8,36.8,30.18,WSW,238,0.0,0.0,100,0.00,BKN,,0.00,WeatherDisplay:10.37,2013-12-20 06:36:00,
2013-12-20 01:38:00,36.8,36.8,30.18,WSW,238,0.0,0.0,100,0.00,BKN,,0.00,WeatherDisplay:10.37,2013-12-20 06:38:00,
2013-12-20 01:40:00,36.8,36.8,30.18,WSW,238,0.0,0.0,100,0.00,BKN,,0.00,WeatherDisplay:10.37,2013-12-20 06:40:00,
2013-12-20 01:41:00,36.6,36.6,30.18,WSW,238,0.0,0.0,100,0.00,BKN,,0.00,WeatherDisplay:10.37,2013-12-20 06:41:00,
2013-12-20 01:43:00,36.6,36.6,30.18,WSW,238,0.0,0.0,100,0.00,BKN,,0.00,WeatherDisplay:10.37,2013-12-20 06:43:00,
2013-12-20 01:44:00,36.6,36.6,30.18,WSW,238,0.0,0.0,100,0.00,BKN,,0.00,WeatherDisplay:10.37,2013-12-20 06:44:00,
2013-12-20 01:45:00,36.6,36.6,30.18,WSW,238,0.2,3.5,100,0.00,BKN,,0.00,WeatherDisplay:10.37,2013-12-20 06:45:00,
2013-12-20 01:46:00,36.6,36.6,30.18,WSW,238,0.0,0.0,100,0.00,BKN,,0.00,WeatherDisplay:10.37,2013-12-20 06:46:00,
2013-12-20 01:49:00,36.6,36.6,30.18,WSW,238,0.0,0.0,100,0.00,BKN,,0.00,WeatherDisplay:10.37,2013-12-20 06:49:00,
2013-12-20 01:50:00,36.6,36.6,30.18,WSW,238,0.0,0.0,100,0.00,BKN,,0.00,WeatherDisplay:10.37,2013-12-20 06:50:00,
2013-12-20 01:51:00,36.5,36.5,30.18,WSW,238,0.0,0.0,100,0.00,BKN,,0.00,WeatherDisplay:10.37,2013-12-20 06:51:00,
2013-12-20 01:52:00,36.5,36.5,30.18,WSW,238,0.0,0.0,100,0.00,BKN,,0.00,WeatherDisplay:10.37,2013-12-20 06:52:00,
2013-12-20 01:54:00,36.5,36.5,30.18,WSW,238,0.0,0.0,100,0.00,BKN,,0.00,WeatherDisplay:10.37,2013-12-20 06:54:00,
2013-12-20 01:55:00,36.4,36.4,30.18,WSW,238,0.0,0.0,100,0.00,BKN,,0.00,WeatherDisplay:10.37,2013-12-20 06:55:00,
2013-12-20 01:57:00,36.4,36.4,30.18,WSW,238,0.0,0.0,100,0.00,BKN,,0.00,WeatherDisplay:10.37,2013-12-20 06:57:00,
2013-12-20 01:59:00,36.3,36.3,30.18,WSW,238,0.0,0.0,100,0.00,BKN,,0.00,WeatherDisplay:10.37,2013-12-20 06:59:00,
2013-12-20 02:01:00,36.2,36.2,30.18,WSW,238,0.0,0.0,100,0.00,CLR,,0.00,WeatherDisplay:10.37,2013-12-20 07:01:00,
2013-12-20 02:02:00,36.3,36.3,30.18,WSW,238,0.0,0.0,100,0.00,CLR,,0.00,WeatherDisplay:10.37,2013-12-20 07:02:00,
2013-12-20 02:05:00,36.3,36.3,30.18,WSW,238,0.0,0.0,100,0.00,CLR,,0.00,WeatherDisplay:10.37,2013-12-20 07:05:00,
2013-12-20 02:06:00,36.3,36.3,30.18,WSW,238,0.0,0.0,100,0.00,CLR,,0.00,WeatherDisplay:10.37,2013-12-20 07:06:00,
2013-12-20 02:07:00,36.3,36.3,30.19,WSW,238,0.0,0.0,100,0.00,CLR,,0.00,WeatherDisplay:10.37,2013-12-20 07:07:00,
2013-12-20 02:10:00,36.3,36.3,30.19,WSW,238,0.0,0.0,100,0.00,CLR,,0.00,WeatherDisplay:10.37,2013-12-20 07:10:00,
2013-12-20 02:12:00,36.2,36.2,30.19,WSW,238,0.0,0.0,100,0.00,CLR,,0.00,WeatherDisplay:10.37,2013-12-20 07:12:00,
2013-12-20 02:13:00,36.2,36.2,30.19,WSW,238,0.0,0.0,100,0.00,CLR,,0.00,WeatherDisplay:10.37,2013-12-20 07:13:00,
2013-12-20 02:15:00,36.1,36.1,30.19,WSW,238,0.0,0.0,100,0.00,CLR,,0.00,WeatherDisplay:10.37,2013-12-20 07:15:00,
2013-12-20 02:17:00,35.9,35.9,30.19,WSW,238,0.0,0.0,100,0.00,CLR,,0.00,WeatherDisplay:10.37,2013-12-20 07:17:00,
2013-12-20 02:18:00,35.9,35.9,30.19,WSW,238,0.0,0.0,100,0.00,CLR,,0.00,WeatherDisplay:10.37,2013-12-20 07:18:00,
2013-12-20 02:20:00,35.9,35.9,30.19,WSW,238,0.0,0.0,100,0.00,CLR,,0.00,WeatherDisplay:10.37,2013-12-20 07:20:00,
2013-12-20 02:23:00,35.9,35.9,30.19,WSW,238,0.0,0.0,100,0.00,CLR,,0.00,WeatherDisplay:10.37,2013-12-20 07:23:00,
2013-12-20 02:25:00,35.7,35.7,30.20,WSW,238,1.1,2.3,100,0.00,CLR,,0.00,WeatherDisplay:10.37,2013-12-20 07:25:00,
2013-12-20 02:26:00,35.7,35.7,30.20,WSW,238,0.0,2.3,100,0.00,CLR,,0.00,WeatherDisplay:10.37,2013-12-20 07:26:00,
2013-12-20 02:28:00,35.8,35.8,30.19,WSW,238,1.8,2.3,100,0.00,CLR,,0.00,WeatherDisplay:10.37,2013-12-20 07:28:00,
2013-12-20 02:30:00,35.7,35.7,30.20,WSW,238,0.0,0.0,100,0.00,CLR,,0.00,WeatherDisplay:10.37,2013-12-20 07:30:00,
2013-12-20 02:32:00,35.7,35.7,30.20,WSW,238,0.0,0.0,100,0.00,CLR,,0.00,WeatherDisplay:10.37,2013-12-20 07:32:00,
2013-12-20 02:33:00,35.7,35.7,30.20,WSW,238,0.0,0.0,100,0.00,CLR,,0.00,WeatherDisplay:10.37,2013-12-20 07:33:00,
2013-12-20 02:34:00,35.7,35.7,30.20,WSW,238,0.0,0.0,100,0.00,CLR,,0.00,WeatherDisplay:10.37,2013-12-20 07:34:00,
2013-12-20 02:35:00,35.7,35.7,30.20,WSW,238,0.0,0.0,100,0.00,CLR,,0.00,WeatherDisplay:10.37,2013-12-20 07:35:00,
2013-12-20 02:37:00,35.7,35.7,30.20,WSW,238,0.0,0.0,100,0.00,CLR,,0.00,WeatherDisplay:10.37,2013-12-20 07:37:00,
2013-12-20 02:38:00,35.7,35.7,30.20,WSW,238,0.0,0.0,100,0.00,CLR,,0.00,WeatherDisplay:10.37,2013-12-20 07:38:00,
2013-12-20 02:39:00,35.7,35.7,30.20,WSW,238,0.0,0.0,100,0.00,CLR,,0.00,WeatherDisplay:10.37,2013-12-20 07:39:00,
2013-12-20 02:40:00,35.7,35.7,30.20,WSW,238,1.0,2.3,100,0.00,CLR,,0.00,WeatherDisplay:10.37,2013-12-20 07:40:00,
2013-12-20 02:43:00,35.7,35.7,30.20,WSW,238,1.0,3.5,100,0.00,CLR,,0.00,WeatherDisplay:10.37,2013-12-20 07:43:00,
2013-12-20 02:44:00,35.6,35.6,30.20,WSW,238,0.0,3.5,100,0.00,CLR,,0.00,WeatherDisplay:10.37,2013-12-20 07:44:00,
2013-12-20 02:45:00,35.6,35.6,30.20,WSW,238,0.0,0.0,100,0.00,CLR,,0.00,WeatherDisplay:10.37,2013-12-20 07:45:00,
2013-12-20 02:48:00,35.4,35.4,30.21,WSW,238,0.0,0.0,100,0.00,CLR,,0.00,WeatherDisplay:10.37,2013-12-20 07:48:00,
2013-12-20 02:49:00,35.4,35.4,30.20,WSW,238,0.0,0.0,100,0.00,CLR,,0.00,WeatherDisplay:10.37,2013-12-20 07:49:00,
2013-12-20 02:50:00,35.4,35.4,30.20,WSW,238,0.0,0.0,100,0.00,CLR,,0.00,WeatherDisplay:10.37,2013-12-20 07:50:00,
2013-12-20 02:53:00,35.3,35.3,30.21,WSW,238,0.0,0.0,100,0.00,CLR,,0.00,WeatherDisplay:10.37,2013-12-20 07:53:00,
2013-12-20 02:54:00,35.3,35.3,30.20,WSW,238,0.0,0.0,100,0.00,CLR,,0.00,WeatherDisplay:10.37,2013-12-20 07:54:00,
2013-12-20 02:55:00,35.3,35.3,30.20,WSW,238,0.0,0.0,100,0.00,CLR,,0.00,WeatherDisplay:10.37,2013-12-20 07:55:00,
2013-12-20 02:58:00,35.2,35.2,30.21,WSW,238,0.0,0.0,100,0.00,CLR,,0.00,WeatherDisplay:10.37,2013-12-20 07:58:00,
2013-12-20 02:59:00,35.2,35.2,30.20,WSW,238,0.0,0.0,100,0.00,CLR,,0.00,WeatherDisplay:10.37,2013-12-20 07:59:00,
2013-12-20 03:00:00,35.2,35.2,30.20,SW,222,2.0,5.8,100,0.00,CLR,,0.00,WeatherDisplay:10.37,2013-12-20 08:00:00,
2013-12-20 03:03:00,34.9,34.9,30.20,NW,322,3.6,8.1,100,0.00,CLR,,0.00,WeatherDisplay:10.37,2013-12-20 08:03:00,
2013-12-20 03:04:00,34.9,34.9,30.20,NW,324,0.5,5.8,100,0.00,CLR,,0.00,WeatherDisplay:10.37,2013-12-20 08:04:00,
2013-12-20 03:05:00,34.9,34.9,30.20,NW,324,0.0,1.1,100,0.00,CLR,,0.00,WeatherDisplay:10.37,2013-12-20 08:05:00,
2013-12-20 03:09:00,35.1,35.1,30.21,NW,324,0.0,0.0,100,0.00,CLR,,0.00,WeatherDisplay:10.37,2013-12-20 08:09:00,
2013-12-20 03:10:00,35.1,35.1,30.21,NW,324,0.2,0.0,100,0.00,CLR,,0.00,WeatherDisplay:10.37,2013-12-20 08:10:00,
2013-12-20 03:11:00,35.1,35.1,30.21,NW,324,0.2,1.1,100,0.00,CLR,,0.00,WeatherDisplay:10.37,2013-12-20 08:11:00,
2013-12-20 03:15:00,35.1,35.1,30.21,NW,324,0.0,0.0,100,0.00,CLR,,0.00,WeatherDisplay:10.37,2013-12-20 08:15:00,
2013-12-20 03:16:00,35.1,35.1,30.21,West,280,0.0,0.0,100,0.00,CLR,,0.00,WeatherDisplay:10.37,2013-12-20 08:16:00,
2013-12-20 03:20:00,35.1,35.1,30.21,WNW,296,0.0,0.0,100,0.00,CLR,,0.00,WeatherDisplay:10.37,2013-12-20 08:20:00,
2013-12-20 03:21:00,35.1,35.1,30.21,WNW,295,0.0,0.0,100,0.00,CLR,,0.00,WeatherDisplay:10.37,2013-12-20 08:21:00,
2013-12-20 03:25:00,35.1,35.1,30.21,WNW,295,0.0,0.0,100,0.00,CLR,,0.00,WeatherDisplay:10.37,2013-12-20 08:25:00,
2013-12-20 03:26:00,35.1,35.1,30.21,WNW,295,0.0,0.0,100,0.00,CLR,,0.00,WeatherDisplay:10.37,2013-12-20 08:26:00,
2013-12-20 03:30:00,34.9,34.9,30.21,WNW,295,0.0,0.0,100,0.00,CLR,,0.00,WeatherDisplay:10.37,2013-12-20 08:30:00,
2013-12-20 03:31:00,34.9,34.9,30.21,WNW,295,0.0,0.0,100,0.00,CLR,,0.00,WeatherDisplay:10.37,2013-12-20 08:31:00,
2013-12-20 03:32:00,34.8,34.8,30.21,WNW,295,0.0,0.0,100,0.00,CLR,,0.00,WeatherDisplay:10.37,2013-12-20 08:32:00,
2013-12-20 03:35:00,34.8,34.8,30.21,WNW,295,0.0,0.0,100,0.00,CLR,,0.00,WeatherDisplay:10.37,2013-12-20 08:35:00,
2013-12-20 03:36:00,34.7,34.7,30.22,WNW,295,0.0,0.0,100,0.00,CLR,,0.00,WeatherDisplay:10.37,2013-12-20 08:36:00,
2013-12-20 03:37:00,34.8,34.8,30.22,WNW,295,0.0,0.0,100,0.00,CLR,,0.00,WeatherDisplay:10.37,2013-12-20 08:37:00,
2013-12-20 03:40:00,34.8,34.8,30.22,WNW,295,0.0,0.0,100,0.00,CLR,,0.00,WeatherDisplay:10.37,2013-12-20 08:40:00,
2013-12-20 03:41:00,34.7,34.7,30.21,WNW,295,0.0,0.0,100,0.00,CLR,,0.00,WeatherDisplay:10.37,2013-12-20 08:41:00,
2013-12-20 03:42:00,34.7,34.7,30.22,WNW,295,0.0,0.0,100,0.00,CLR,,0.00,WeatherDisplay:10.37,2013-12-20 08:42:00,
2013-12-20 03:46:00,34.6,34.6,30.22,WNW,295,0.0,0.0,100,0.00,CLR,,0.00,WeatherDisplay:10.37,2013-12-20 08:46:00,
2013-12-20 03:47:00,34.5,34.5,30.22,WNW,295,0.0,0.0,100,0.00,CLR,,0.00,WeatherDisplay:10.37,2013-12-20 08:47:00,
2013-12-20 03:51:00,34.3,34.3,30.21,WNW,295,1.6,2.3,100,0.00,CLR,,0.00,WeatherDisplay:10.37,2013-12-20 08:51:00,
2013-12-20 03:52:00,34.3,34.3,30.21,WNW,295,0.6,3.5,100,0.00,CLR,,0.00,WeatherDisplay:10.37,2013-12-20 08:52:00,
2013-12-20 03:54:00,34.2,34.2,30.21,WNW,295,0.0,0.0,100,0.00,CLR,,0.00,WeatherDisplay:10.37,2013-12-20 08:54:00,
2013-12-20 03:56:00,34.1,34.1,30.21,NE,37,0.8,3.5,100,0.00,CLR,,0.00,WeatherDisplay:10.37,2013-12-20 08:56:00,
2013-12-20 03:57:00,34.0,34.0,30.21,WNW,284,2.5,3.5,100,0.00,CLR,,0.00,WeatherDisplay:10.37,2013-12-20 08:57:00,
2013-12-20 03:59:00,34.0,34.0,30.21,NNE,17,1.5,3.0,100,0.00,CLR,,0.00,WeatherDisplay:10.37,2013-12-20 08:59:00,
2013-12-20 04:01:00,33.9,33.9,30.21,NW,307,2.0,2.3,100,0.00,CLR,,0.00,WeatherDisplay:10.37,2013-12-20 09:01:00,
2013-12-20 04:02:00,33.8,33.8,30.21,NW,307,0.3,3.5,100,0.00,CLR,,0.00,WeatherDisplay:10.37,2013-12-20 09:02:00,
2013-12-20 04:04:00,33.8,33.8,30.21,NW,307,1.3,2.0,100,0.00,CLR,,0.00,WeatherDisplay:10.37,2013-12-20 09:04:00,
2013-12-20 04:06:00,33.9,33.9,30.21,NW,307,1.6,3.0,100,0.00,CLR,,0.00,WeatherDisplay:10.37,2013-12-20 09:06:00,
2013-12-20 04:07:00,33.9,33.9,30.21,NW,307,1.1,3.5,100,0.00,CLR,,0.00,WeatherDisplay:10.37,2013-12-20 09:07:00,
2013-12-20 04:08:00,33.9,33.9,30.21,NW,307,0.1,3.5,100,0.00,CLR,,0.00,WeatherDisplay:10.37,2013-12-20 09:08:00,
2013-12-20 04:09:00,33.9,33.9,30.21,NW,307,0.0,0.0,100,0.00,CLR,,0.00,WeatherDisplay:10.37,2013-12-20 09:09:00,
2013-12-20 04:12:00,34.0,34.0,30.21,NW,307,0.0,0.0,100,0.00,CLR,,0.00,WeatherDisplay:10.37,2013-12-20 09:12:00,
2013-12-20 04:13:00,34.0,34.0,30.21,NW,307,0.0,0.0,100,0.00,CLR,,0.00,WeatherDisplay:10.37,2013-12-20 09:13:00,
2013-12-20 04:14:00,34.0,34.0,30.21,NW,304,1.3,4.0,100,0.00,CLR,,0.00,WeatherDisplay:10.37,2013-12-20 09:14:00,
2013-12-20 04:15:00,33.9,33.9,30.21,WNW,301,2.5,3.5,100,0.00,CLR,,0.00,WeatherDisplay:10.37,2013-12-20 09:15:00,
2013-12-20 04:17:00,33.9,33.9,30.21,WSW,243,3.2,5.0,100,0.00,CLR,,0.00,WeatherDisplay:10.37,2013-12-20 09:17:00,
2013-12-20 04:18:00,33.9,33.9,30.21,WSW,241,1.5,5.8,100,0.00,CLR,,0.00,WeatherDisplay:10.37,2013-12-20 09:18:00,
2013-12-20 04:20:00,33.9,33.9,30.21,WSW,241,0.0,0.0,100,0.00,CLR,,0.00,WeatherDisplay:10.37,2013-12-20 09:20:00,
2013-12-20 04:22:00,34.0,34.0,30.21,WSW,241,0.0,0.0,100,0.00,CLR,,0.00,WeatherDisplay:10.37,2013-12-20 09:22:00,
2013-12-20 04:23:00,34.0,34.0,30.21,WSW,241,0.0,0.0,100,0.00,CLR,,0.00,WeatherDisplay:10.37,2013-12-20 09:23:00,
2013-12-20 04:24:00,34.1,34.1,30.21,WSW,240,0.0,0.0,100,0.00,CLR,,0.00,WeatherDisplay:10.37,2013-12-20 09:24:00,
2013-12-20 04:25:00,34.1,34.1,30.21,WSW,241,0.0,0.0,100,0.00,CLR,,0.00,WeatherDisplay:10.37,2013-12-20 09:25:00,
2013-12-20 04:28:00,34.1,34.1,30.21,WSW,241,0.0,0.0,100,0.00,CLR,,0.00,WeatherDisplay:10.37,2013-12-20 09:28:00,
2013-12-20 04:29:00,34.1,34.1,30.21,WSW,241,0.0,0.0,100,0.00,CLR,,0.00,WeatherDisplay:10.37,2013-12-20 09:29:00,
2013-12-20 04:30:00,34.1,34.1,30.21,WSW,241,0.0,0.0,100,0.00,CLR,,0.00,WeatherDisplay:10.37,2013-12-20 09:30:00,
2013-12-20 04:31:00,34.1,34.1,30.21,WSW,240,0.0,0.0,100,0.00,CLR,,0.00,WeatherDisplay:10.37,2013-12-20 09:31:00,
2013-12-20 04:33:00,34.2,34.2,30.21,WSW,241,0.0,0.0,100,0.00,CLR,,0.00,WeatherDisplay:10.37,2013-12-20 09:33:00,
2013-12-20 04:34:00,34.2,34.2,30.21,WSW,241,0.0,0.0,100,0.00,CLR,,0.00,WeatherDisplay:10.37,2013-12-20 09:34:00,
2013-12-20 04:35:00,34.2,34.2,30.21,WSW,241,0.0,0.0,100,0.00,CLR,,0.00,WeatherDisplay:10.37,2013-12-20 09:35:00,
2013-12-20 04:36:00,34.2,34.2,30.21,WSW,241,0.0,0.0,100,0.00,CLR,,0.00,WeatherDisplay:10.37,2013-12-20 09:36:00,
2013-12-20 04:37:00,34.2,34.2,30.21,WSW,241,0.0,0.0,100,0.00,CLR,,0.00,WeatherDisplay:10.37,2013-12-20 09:37:00,
2013-12-20 04:38:00,34.1,34.1,30.21,WSW,241,0.0,0.0,100,0.00,CLR,,0.00,WeatherDisplay:10.37,2013-12-20 09:38:00,
2013-12-20 04:40:00,34.1,34.1,30.21,WSW,241,0.0,0.0,100,0.00,CLR,,0.00,WeatherDisplay:10.37,2013-12-20 09:40:00,
2013-12-20 04:41:00,34.1,34.1,30.21,WSW,241,0.0,0.0,100,0.00,CLR,,0.00,WeatherDisplay:10.37,2013-12-20 09:41:00,
2013-12-20 04:42:00,34.1,34.1,30.21,WSW,241,0.0,0.0,100,0.00,CLR,,0.00,WeatherDisplay:10.37,2013-12-20 09:42:00,
2013-12-20 04:43:00,34.0,34.0,30.21,WSW,241,0.0,0.0,100,0.00,CLR,,0.00,WeatherDisplay:10.37,2013-12-20 09:43:00,
2013-12-20 04:45:00,34.1,34.1,30.21,WSW,241,0.0,0.0,100,0.00,CLR,,0.00,WeatherDisplay:10.37,2013-12-20 09:45:00,
2013-12-20 04:46:00,34.0,34.0,30.21,WSW,241,0.0,0.0,100,0.00,CLR,,0.00,WeatherDisplay:10.37,2013-12-20 09:46:00,
2013-12-20 04:47:00,34.0,34.0,30.21,WSW,241,0.0,0.0,100,0.00,CLR,,0.00,WeatherDisplay:10.37,2013-12-20 09:47:00,
2013-12-20 04:48:00,33.9,33.9,30.21,WSW,241,0.0,0.0,100,0.00,CLR,,0.00,WeatherDisplay:10.37,2013-12-20 09:48:00,
2013-12-20 04:51:00,33.9,33.9,30.21,WSW,241,0.0,0.0,100,0.00,CLR,,0.00,WeatherDisplay:10.37,2013-12-20 09:51:00,
2013-12-20 04:52:00,33.9,33.9,30.21,WSW,241,0.0,0.0,100,0.00,CLR,,0.00,WeatherDisplay:10.37,2013-12-20 09:52:00,
2013-12-20 04:53:00,33.8,33.8,30.21,WSW,241,0.0,0.0,100,0.00,CLR,,0.00,WeatherDisplay:10.37,2013-12-20 09:53:00,
2013-12-20 04:54:00,33.8,33.8,30.21,WSW,241,0.0,0.0,100,0.00,CLR,,0.00,WeatherDisplay:10.37,2013-12-20 09:54:00,
2013-12-20 04:56:00,33.5,33.5,30.20,NW,306,1.1,4.6,100,0.00,CLR,,0.00,WeatherDisplay:10.37,2013-12-20 09:56:00,
2013-12-20 04:58:00,33.5,33.5,30.20,North,358,1.0,3.0,100,0.00,CLR,,0.00,WeatherDisplay:10.37,2013-12-20 09:58:00,
2013-12-20 04:59:00,33.4,33.4,30.21,North,358,0.9,3.5,100,0.00,CLR,,0.00,WeatherDisplay:10.37,2013-12-20 09:59:00,
2013-12-20 05:01:00,33.4,33.4,30.20,North,358,0.0,0.0,100,0.00,BKN,,0.00,WeatherDisplay:10.37,2013-12-20 10:01:00,
2013-12-20 05:02:00,33.3,33.3,30.20,North,358,0.0,0.0,100,0.00,BKN,,0.00,WeatherDisplay:10.37,2013-12-20 10:02:00,
2013-12-20 05:04:00,33.3,33.3,30.20,North,358,1.0,3.5,100,0.00,BKN,,0.00,WeatherDisplay:10.37,2013-12-20 10:04:00,
2013-12-20 05:06:00,33.2,33.2,30.20,North,353,0.4,2.0,100,0.00,BKN,,0.00,WeatherDisplay:10.37,2013-12-20 10:06:00,
2013-12-20 05:07:00,33.2,33.2,30.20,North,354,0.5,2.0,100,0.00,BKN,,0.00,WeatherDisplay:10.37,2013-12-20 10:07:00,
2013-12-20 05:08:00,33.2,33.2,30.20,North,355,0.0,0.0,100,0.00,BKN,,0.00,WeatherDisplay:10.37,2013-12-20 10:08:00,
2013-12-20 05:09:00,33.2,33.2,30.20,North,355,0.0,0.0,100,0.00,BKN,,0.00,WeatherDisplay:10.37,2013-12-20 10:09:00,
2013-12-20 05:12:00,33.2,33.2,30.20,North,355,0.0,0.0,100,0.00,BKN,,0.00,WeatherDisplay:10.37,2013-12-20 10:12:00,
2013-12-20 05:14:00,33.2,33.2,30.20,North,355,0.0,0.0,100,0.00,BKN,,0.00,WeatherDisplay:10.37,2013-12-20 10:14:00,
2013-12-20 05:17:00,33.2,33.2,30.20,North,355,0.0,0.0,100,0.00,BKN,,0.00,WeatherDisplay:10.37,2013-12-20 10:17:00,
2013-12-20 05:19:00,33.2,33.2,30.20,North,355,0.0,0.0,100,0.00,BKN,,0.00,WeatherDisplay:10.37,2013-12-20 10:19:00,
2013-12-20 05:20:00,33.3,33.3,30.20,North,355,0.0,0.0,100,0.00,BKN,,0.00,WeatherDisplay:10.37,2013-12-20 10:20:00,
2013-12-20 05:22:00,33.2,33.2,30.20,North,355,0.0,0.0,100,0.00,BKN,,0.00,WeatherDisplay:10.37,2013-12-20 10:22:00,
2013-12-20 05:23:00,33.2,33.2,30.20,North,355,0.0,0.0,100,0.00,BKN,,0.00,WeatherDisplay:10.37,2013-12-20 10:23:00,
2013-12-20 05:25:00,33.0,33.0,30.21,North,355,0.0,0.0,100,0.00,BKN,,0.00,WeatherDisplay:10.37,2013-12-20 10:25:00,
2013-12-20 05:28:00,33.1,33.1,30.21,North,355,0.0,0.0,100,0.00,BKN,,0.00,WeatherDisplay:10.37,2013-12-20 10:28:00,
2013-12-20 05:29:00,33.0,33.0,30.20,North,355,0.0,0.0,100,0.00,BKN,,0.00,WeatherDisplay:10.37,2013-12-20 10:29:00,
2013-12-20 05:30:00,33.0,33.0,30.20,North,355,0.0,0.0,100,0.00,BKN,,0.00,WeatherDisplay:10.37,2013-12-20 10:30:00,
2013-12-20 05:31:00,33.0,33.0,30.21,North,355,0.0,0.0,100,0.00,BKN,,0.00,WeatherDisplay:10.37,2013-12-20 10:31:00,
2013-12-20 05:33:00,33.0,33.0,30.20,North,355,0.0,0.0,100,0.00,BKN,,0.00,WeatherDisplay:10.37,2013-12-20 10:33:00,
2013-12-20 05:35:00,33.1,33.1,30.20,North,355,0.0,0.0,100,0.00,BKN,,0.00,WeatherDisplay:10.37,2013-12-20 10:35:00,
2013-12-20 05:37:00,33.1,33.1,30.20,North,355,0.0,0.0,100,0.00,BKN,,0.00,WeatherDisplay:10.37,2013-12-20 10:37:00,
2013-12-20 05:38:00,33.1,33.1,30.21,North,355,0.0,0.0,100,0.00,BKN,,0.00,WeatherDisplay:10.37,2013-12-20 10:38:00,
2013-12-20 05:40:00,33.1,33.1,30.20,North,355,0.0,0.0,100,0.00,BKN,,0.00,WeatherDisplay:10.37,2013-12-20 10:40:00,
2013-12-20 05:42:00,33.2,33.2,30.20,North,355,0.0,0.0,100,0.00,BKN,,0.00,WeatherDisplay:10.37,2013-12-20 10:42:00,
2013-12-20 05:43:00,33.2,33.2,30.20,North,355,0.0,0.0,100,0.00,BKN,,0.00,WeatherDisplay:10.37,2013-12-20 10:43:00,
2013-12-20 05:45:00,33.1,33.1,30.20,North,355,0.0,0.0,100,0.00,BKN,,0.00,WeatherDisplay:10.37,2013-12-20 10:45:00,
2013-12-20 05:46:00,33.2,33.2,30.21,North,355,0.0,0.0,100,0.00,BKN,,0.00,WeatherDisplay:10.37,2013-12-20 10:46:00,
2013-12-20 05:47:00,33.2,33.2,30.20,North,355,0.0,0.0,100,0.00,BKN,,0.00,WeatherDisplay:10.37,2013-12-20 10:47:00,
2013-12-20 05:48:00,33.2,33.2,30.20,North,355,0.0,0.0,100,0.00,BKN,,0.00,WeatherDisplay:10.37,2013-12-20 10:48:00,
2013-12-20 05:50:00,33.1,33.1,30.20,North,355,0.0,0.0,100,0.00,BKN,,0.00,WeatherDisplay:10.37,2013-12-20 10:50:00,
2013-12-20 05:52:00,33.1,33.1,30.20,North,355,0.0,0.0,100,0.00,BKN,,0.00,WeatherDisplay:10.37,2013-12-20 10:52:00,
2013-12-20 05:53:00,33.1,33.1,30.21,North,355,0.0,0.0,100,0.00,BKN,,0.00,WeatherDisplay:10.37,2013-12-20 10:53:00,
2013-12-20 05:55:00,33.0,33.0,30.20,North,355,0.0,0.0,100,0.00,BKN,,0.00,WeatherDisplay:10.37,2013-12-20 10:55:00,
2013-12-20 05:57:00,33.0,33.0,30.20,North,355,0.0,0.0,100,0.00,BKN,,0.00,WeatherDisplay:10.37,2013-12-20 10:57:00,
2013-12-20 05:58:00,32.9,32.9,30.20,North,355,0.0,0.0,100,0.00,BKN,,0.00,WeatherDisplay:10.37,2013-12-20 10:58:00,
2013-12-20 06:01:00,33.0,33.0,30.20,North,355,0.0,0.0,100,0.00,BKN,,0.00,WeatherDisplay:10.37,2013-12-20 11:01:00,
2013-12-20 06:02:00,33.0,33.0,30.20,North,355,0.0,0.0,100,0.00,BKN,,0.00,WeatherDisplay:10.37,2013-12-20 11:02:00,
2013-12-20 06:03:00,33.0,33.0,30.20,North,355,0.0,0.0,100,0.00,BKN,,0.00,WeatherDisplay:10.37,2013-12-20 11:03:00,
2013-12-20 06:04:00,32.9,32.9,30.20,North,355,0.0,0.0,100,0.00,BKN,,0.00,WeatherDisplay:10.37,2013-12-20 11:04:00,
2013-12-20 06:06:00,32.8,32.8,30.20,North,355,0.0,0.0,100,0.00,BKN,,0.00,WeatherDisplay:10.37,2013-12-20 11:06:00,
2013-12-20 06:07:00,32.8,32.8,30.20,North,355,0.0,0.0,100,0.00,BKN,,0.00,WeatherDisplay:10.37,2013-12-20 11:07:00,
2013-12-20 06:09:00,32.8,32.8,30.20,North,355,0.0,0.0,100,0.00,BKN,,0.00,WeatherDisplay:10.37,2013-12-20 11:09:00,
2013-12-20 06:11:00,32.8,32.8,30.20,North,355,0.0,0.0,100,0.00,BKN,,0.00,WeatherDisplay:10.37,2013-12-20 11:11:00,
2013-12-20 06:12:00,32.7,32.7,30.20,North,355,0.0,0.0,100,0.00,BKN,,0.00,WeatherDisplay:10.37,2013-12-20 11:12:00,
2013-12-20 06:14:00,32.7,32.7,30.20,North,355,0.0,0.0,100,0.00,BKN,,0.00,WeatherDisplay:10.37,2013-12-20 11:14:00,
2013-12-20 06:16:00,32.7,32.7,30.20,North,355,0.0,0.0,100,0.00,BKN,,0.00,WeatherDisplay:10.37,2013-12-20 11:16:00,
2013-12-20 06:17:00,32.7,32.7,30.20,North,355,0.0,0.0,100,0.00,BKN,,0.00,WeatherDisplay:10.37,2013-12-20 11:17:00,
2013-12-20 06:18:00,32.7,32.7,30.20,North,355,0.0,0.0,100,0.00,BKN,,0.00,WeatherDisplay:10.37,2013-12-20 11:18:00,
2013-12-20 06:19:00,32.6,32.6,30.20,North,355,0.0,0.0,100,0.00,BKN,,0.00,WeatherDisplay:10.37,2013-12-20 11:19:00,
2013-12-20 06:21:00,32.6,32.6,30.20,North,355,0.0,0.0,100,0.00,BKN,,0.00,WeatherDisplay:10.37,2013-12-20 11:21:00,
2013-12-20 06:22:00,32.6,32.6,30.20,North,355,0.0,0.0,100,0.00,BKN,,0.00,WeatherDisplay:10.37,2013-12-20 11:22:00,
2013-12-20 06:24:00,32.6,32.6,30.20,North,355,0.0,0.0,100,0.00,BKN,,0.00,WeatherDisplay:10.37,2013-12-20 11:24:00,
2013-12-20 06:25:00,32.6,32.6,30.20,North,355,0.0,0.0,100,0.00,BKN,,0.00,WeatherDisplay:10.37,2013-12-20 11:25:00,
2013-12-20 06:27:00,32.5,32.5,30.20,North,355,0.0,0.0,100,0.00,BKN,,0.00,WeatherDisplay:10.37,2013-12-20 11:27:00,
2013-12-20 06:29:00,32.4,32.4,30.20,North,355,0.0,0.0,100,0.00,BKN,,0.00,WeatherDisplay:10.37,2013-12-20 11:29:00,
2013-12-20 06:30:00,32.4,32.4,30.20,North,355,0.0,0.0,100,0.00,BKN,,0.00,WeatherDisplay:10.37,2013-12-20 11:30:00,
2013-12-20 06:32:00,32.4,32.4,30.19,North,355,0.0,0.0,100,0.00,BKN,,0.00,WeatherDisplay:10.37,2013-12-20 11:32:00,
2013-12-20 06:33:00,32.5,32.5,30.19,North,355,0.0,0.0,100,0.00,BKN,,0.00,WeatherDisplay:10.37,2013-12-20 11:33:00,
2013-12-20 06:34:00,32.5,32.5,30.20,North,355,0.0,0.0,100,0.00,BKN,,0.00,WeatherDisplay:10.37,2013-12-20 11:34:00,
2013-12-20 06:35:00,32.5,32.5,30.19,North,355,0.0,0.0,100,0.00,BKN,,0.00,WeatherDisplay:10.37,2013-12-20 11:35:00,
2013-12-20 06:37:00,32.4,32.4,30.20,North,355,0.0,0.0,100,0.00,BKN,,0.00,WeatherDisplay:10.37,2013-12-20 11:37:00,
2013-12-20 06:38:00,32.4,32.4,30.20,North,355,0.0,0.0,100,0.00,BKN,,0.00,WeatherDisplay:10.37,2013-12-20 11:38:00,
2013-12-20 06:39:00,32.3,32.3,30.20,North,355,0.0,0.0,100,0.00,BKN,,0.00,WeatherDisplay:10.37,2013-12-20 11:39:00,
2013-12-20 06:40:00,32.3,32.3,30.20,North,355,0.0,0.0,100,0.00,BKN,,0.00,WeatherDisplay:10.37,2013-12-20 11:40:00,
2013-12-20 06:43:00,32.2,32.2,30.20,North,349,0.0,0.0,100,0.00,BKN,,0.00,WeatherDisplay:10.37,2013-12-20 11:43:00,
2013-12-20 06:44:00,32.3,32.3,30.20,North,349,0.0,0.0,100,0.00,BKN,,0.00,WeatherDisplay:10.37,2013-12-20 11:44:00,
2013-12-20 06:46:00,32.3,32.3,30.20,North,349,1.0,2.3,100,0.00,BKN,,0.00,WeatherDisplay:10.37,2013-12-20 11:46:00,
2013-12-20 06:48:00,32.4,32.4,30.20,North,349,1.1,2.3,100,0.00,BKN,,0.00,WeatherDisplay:10.37,2013-12-20 11:48:00,
2013-12-20 06:49:00,32.4,32.4,30.20,North,349,0.1,2.3,100,0.00,BKN,,0.00,WeatherDisplay:10.37,2013-12-20 11:49:00,
2013-12-20 06:51:00,32.5,32.5,30.20,North,349,0.0,0.0,100,0.00,BKN,,0.00,WeatherDisplay:10.37,2013-12-20 11:51:00,
2013-12-20 06:53:00,32.5,32.5,30.20,North,349,0.0,0.0,100,0.00,BKN,,0.00,WeatherDisplay:10.37,2013-12-20 11:53:00,
2013-12-20 06:54:00,32.6,32.6,30.20,North,349,0.0,0.0,100,0.00,BKN,,0.00,WeatherDisplay:10.37,2013-12-20 11:54:00,
2013-12-20 06:55:00,32.6,32.6,30.20,North,349,0.0,0.0,100,0.00,BKN,,0.00,WeatherDisplay:10.37,2013-12-20 11:55:00,
2013-12-20 06:56:00,32.7,32.7,30.20,North,349,0.0,0.0,100,0.00,BKN,,0.00,WeatherDisplay:10.37,2013-12-20 11:56:00,
2013-12-20 06:58:00,32.7,32.7,30.20,North,349,0.0,0.0,100,0.00,BKN,,0.00,WeatherDisplay:10.37,2013-12-20 11:58:00,
2013-12-20 06:59:00,32.8,32.8,30.20,North,349,0.0,0.0,100,0.00,BKN,,0.00,WeatherDisplay:10.37,2013-12-20 11:59:00,
2013-12-20 07:00:00,32.8,32.8,30.20,North,349,0.0,0.0,100,0.00,OVC,,0.00,WeatherDisplay:10.37,2013-12-20 12:00:00,
2013-12-20 07:01:00,32.9,32.9,30.20,North,349,0.0,0.0,100,0.00,OVC,,0.00,WeatherDisplay:10.37,2013-12-20 12:01:00,
2013-12-20 07:02:00,32.9,32.9,30.20,North,349,0.0,0.0,100,0.00,OVC,,0.00,WeatherDisplay:10.37,2013-12-20 12:02:00,
2013-12-20 07:03:00,33.0,33.0,30.20,North,349,0.0,0.0,100,0.00,OVC,,0.00,WeatherDisplay:10.37,2013-12-20 12:03:00,
2013-12-20 07:04:00,33.0,33.0,30.20,North,349,0.0,0.0,100,0.00,OVC,,0.00,WeatherDisplay:10.37,2013-12-20 12:04:00,
2013-12-20 07:05:00,33.0,33.0,30.20,North,349,0.0,0.0,100,0.00,OVC,,0.00,WeatherDisplay:10.37,2013-12-20 12:05:00,
2013-12-20 07:06:00,33.1,33.1,30.20,North,349,0.0,0.0,100,0.00,OVC,,0.00,WeatherDisplay:10.37,2013-12-20 12:06:00,
2013-12-20 07:07:00,33.1,33.1,30.20,North,349,0.0,0.0,100,0.00,OVC,,0.00,WeatherDisplay:10.37,2013-12-20 12:07:00,
2013-12-20 07:08:00,33.1,33.1,30.20,North,349,0.0,0.0,100,0.00,OVC,,0.00,WeatherDisplay:10.37,2013-12-20 12:08:00,
2013-12-20 07:10:00,33.2,33.2,30.20,North,349,0.0,0.0,100,0.00,OVC,,0.00,WeatherDisplay:10.37,2013-12-20 12:10:00,
2013-12-20 07:12:00,33.2,33.2,30.21,North,349,0.0,0.0,100,0.00,OVC,,0.00,WeatherDisplay:10.37,2013-12-20 12:12:00,
2013-12-20 07:13:00,33.2,33.2,30.20,North,349,0.0,0.0,100,0.00,OVC,,0.00,WeatherDisplay:10.37,2013-12-20 12:13:00,
2013-12-20 07:14:00,33.3,33.3,30.20,North,349,0.0,0.0,100,0.00,OVC,,0.00,WeatherDisplay:10.37,2013-12-20 12:14:00,
2013-12-20 07:15:00,33.3,33.3,30.20,North,349,0.0,0.0,100,0.00,OVC,,0.00,WeatherDisplay:10.37,2013-12-20 12:15:00,
2013-12-20 07:16:00,33.3,33.3,30.20,North,349,0.0,0.0,100,0.00,OVC,,0.00,WeatherDisplay:10.37,2013-12-20 12:16:00,
2013-12-20 07:17:00,33.3,33.3,30.20,North,349,0.0,0.0,100,0.00,OVC,,0.00,WeatherDisplay:10.37,2013-12-20 12:17:00,
2013-12-20 07:18:00,33.3,33.3,30.20,North,349,0.0,0.0,100,0.00,OVC,,0.00,WeatherDisplay:10.37,2013-12-20 12:18:00,
2013-12-20 07:19:00,33.3,33.3,30.20,North,349,0.0,0.0,100,0.00,OVC,,0.00,WeatherDisplay:10.37,2013-12-20 12:19:00,
2013-12-20 07:20:00,33.3,33.3,30.20,North,349,0.0,0.0,100,0.00,OVC,,0.00,WeatherDisplay:10.37,2013-12-20 12:20:00,
2013-12-20 07:21:00,33.4,33.4,30.20,North,349,0.0,0.0,100,0.00,OVC,,0.00,WeatherDisplay:10.37,2013-12-20 12:21:00,
2013-12-20 07:22:00,33.4,33.4,30.20,North,349,0.0,0.0,100,0.00,OVC,,0.00,WeatherDisplay:10.37,2013-12-20 12:22:00,
2013-12-20 07:23:00,33.4,33.4,30.20,North,349,0.0,0.0,100,0.00,OVC,,0.00,WeatherDisplay:10.37,2013-12-20 12:23:00,
2013-12-20 07:24:00,33.4,33.4,30.20,North,349,0.0,0.0,100,0.00,OVC,,0.00,WeatherDisplay:10.37,2013-12-20 12:24:00,
2013-12-20 07:25:00,33.4,33.4,30.20,North,349,0.0,0.0,100,0.00,OVC,,0.00,WeatherDisplay:10.37,2013-12-20 12:25:00,
2013-12-20 07:26:00,33.4,33.4,30.20,North,349,0.0,0.0,100,0.00,OVC,,0.00,WeatherDisplay:10.37,2013-12-20 12:26:00,
2013-12-20 07:28:00,33.5,33.5,30.20,North,349,0.0,0.0,100,0.00,OVC,,0.00,WeatherDisplay:10.37,2013-12-20 12:28:00,
2013-12-20 07:29:00,33.5,33.5,30.20,North,349,0.0,0.0,100,0.00,OVC,,0.00,WeatherDisplay:10.37,2013-12-20 12:29:00,
2013-12-20 07:30:00,33.5,33.5,30.20,North,349,0.0,0.0,100,0.00,OVC,,0.00,WeatherDisplay:10.37,2013-12-20 12:30:00,
2013-12-20 07:31:00,33.5,33.5,30.20,North,349,0.0,0.0,100,0.00,OVC,,0.00,WeatherDisplay:10.37,2013-12-20 12:31:00,
2013-12-20 07:33:00,33.6,33.6,30.21,North,349,0.0,0.0,100,0.00,OVC,,0.00,WeatherDisplay:10.37,2013-12-20 12:33:00,
2013-12-20 07:34:00,33.6,33.6,30.21,North,349,0.0,0.0,100,0.00,OVC,,0.00,WeatherDisplay:10.37,2013-12-20 12:34:00,
2013-12-20 07:35:00,33.7,33.7,30.21,North,349,0.0,0.0,100,0.00,OVC,,0.00,WeatherDisplay:10.37,2013-12-20 12:35:00,
2013-12-20 07:36:00,33.7,33.7,30.21,North,349,0.0,0.0,100,0.00,OVC,,0.00,WeatherDisplay:10.37,2013-12-20 12:36:00,
2013-12-20 07:38:00,33.7,33.7,30.21,North,349,0.0,0.0,100,0.00,OVC,,0.00,WeatherDisplay:10.37,2013-12-20 12:38:00,
2013-12-20 07:39:00,33.8,33.8,30.21,North,349,0.0,0.0,100,0.00,OVC,,0.00,WeatherDisplay:10.37,2013-12-20 12:39:00,
2013-12-20 07:40:00,33.8,33.8,30.21,North,349,0.0,0.0,100,0.00,OVC,,0.00,WeatherDisplay:10.37,2013-12-20 12:40:00,
2013-12-20 07:41:00,33.8,33.8,30.21,North,349,0.0,0.0,100,0.00,OVC,,0.00,WeatherDisplay:10.37,2013-12-20 12:41:00,
2013-12-20 07:43:00,33.9,33.9,30.21,North,349,0.0,0.0,100,0.00,OVC,,0.00,WeatherDisplay:10.37,2013-12-20 12:43:00,
2013-12-20 07:45:00,33.9,33.9,30.21,North,349,0.0,0.0,100,0.00,OVC,,0.00,WeatherDisplay:10.37,2013-12-20 12:45:00,
2013-12-20 07:46:00,34.0,34.0,30.21,North,349,0.0,0.0,100,0.00,OVC,,0.00,WeatherDisplay:10.37,2013-12-20 12:46:00,
2013-12-20 07:47:00,34.0,34.0,30.21,North,349,0.0,0.0,100,0.00,OVC,,0.00,WeatherDisplay:10.37,2013-12-20 12:47:00,
2013-12-20 07:48:00,34.0,34.0,30.21,North,349,0.0,0.0,100,0.00,OVC,,0.00,WeatherDisplay:10.37,2013-12-20 12:48:00,
2013-12-20 07:49:00,34.0,34.0,30.21,North,349,0.0,0.0,100,0.00,OVC,,0.00,WeatherDisplay:10.37,2013-12-20 12:49:00,
2013-12-20 07:50:00,34.1,34.1,30.21,North,349,0.0,0.0,100,0.00,OVC,,0.00,WeatherDisplay:10.37,2013-12-20 12:50:00,
2013-12-20 07:51:00,34.1,34.1,30.21,North,349,0.0,0.0,100,0.00,OVC,,0.00,WeatherDisplay:10.37,2013-12-20 12:51:00,
2013-12-20 07:52:00,34.1,34.1,30.21,North,349,0.0,0.0,100,0.00,OVC,,0.00,WeatherDisplay:10.37,2013-12-20 12:52:00,
2013-12-20 07:53:00,34.1,34.1,30.21,North,349,0.0,0.0,100,0.00,OVC,,0.00,WeatherDisplay:10.37,2013-12-20 12:53:00,
2013-12-20 07:54:00,34.2,34.2,30.21,North,349,0.0,0.0,100,0.00,OVC,,0.00,WeatherDisplay:10.37,2013-12-20 12:54:00,
2013-12-20 07:55:00,34.2,34.2,30.21,North,349,0.0,0.0,100,0.00,OVC,,0.00,WeatherDisplay:10.37,2013-12-20 12:55:00,
2013-12-20 07:56:00,34.2,34.2,30.21,North,349,0.0,0.0,100,0.00,OVC,,0.00,WeatherDisplay:10.37,2013-12-20 12:56:00,
2013-12-20 07:57:00,34.2,34.2,30.21,North,349,0.0,0.0,100,0.00,OVC,,0.00,WeatherDisplay:10.37,2013-12-20 12:57:00,
2013-12-20 07:58:00,34.2,34.2,30.21,North,349,0.0,0.0,100,0.00,OVC,,0.00,WeatherDisplay:10.37,2013-12-20 12:58:00,
2013-12-20 08:00:00,34.2,34.2,30.21,North,349,0.0,0.0,100,0.00,OVC,,0.00,WeatherDisplay:10.37,2013-12-20 13:00:00,
2013-12-20 08:01:00,34.2,34.2,30.21,North,349,0.0,0.0,100,0.00,OVC,,0.00,WeatherDisplay:10.37,2013-12-20 13:01:00,
2013-12-20 08:02:00,34.3,34.3,30.21,North,349,0.0,0.0,100,0.00,OVC,,0.00,WeatherDisplay:10.37,2013-12-20 13:02:00,
2013-12-20 08:03:00,34.2,34.2,30.21,North,349,0.0,0.0,100,0.00,OVC,,0.00,WeatherDisplay:10.37,2013-12-20 13:03:00,
2013-12-20 08:04:00,34.3,34.3,30.21,North,349,0.0,0.0,100,0.00,OVC,,0.00,WeatherDisplay:10.37,2013-12-20 13:04:00,
2013-12-20 08:05:00,34.3,34.3,30.21,North,349,0.0,0.0,100,0.00,OVC,,0.00,WeatherDisplay:10.37,2013-12-20 13:05:00,
2013-12-20 08:06:00,34.3,34.3,30.21,North,349,0.0,0.0,100,0.00,OVC,,0.00,WeatherDisplay:10.37,2013-12-20 13:06:00,
2013-12-20 08:07:00,34.3,34.3,30.21,North,349,0.0,0.0,100,0.00,OVC,,0.00,WeatherDisplay:10.37,2013-12-20 13:07:00,
2013-12-20 08:09:00,34.3,34.3,30.21,North,349,0.0,0.0,100,0.00,OVC,,0.00,WeatherDisplay:10.37,2013-12-20 13:09:00,
2013-12-20 08:10:00,34.4,34.4,30.21,North,349,0.0,0.0,100,0.00,OVC,,0.00,WeatherDisplay:10.37,2013-12-20 13:10:00,
2013-12-20 08:11:00,34.4,34.4,30.21,North,349,0.0,0.0,100,0.00,OVC,,0.00,WeatherDisplay:10.37,2013-12-20 13:11:00,
2013-12-20 08:12:00,34.4,34.4,30.21,North,349,0.0,0.0,100,0.00,OVC,,0.00,WeatherDisplay:10.37,2013-12-20 13:12:00,
2013-12-20 08:13:00,34.4,34.4,30.21,North,349,0.0,0.0,100,0.00,OVC,,0.00,WeatherDisplay:10.37,2013-12-20 13:13:00,
2013-12-20 08:14:00,34.4,34.4,30.21,North,349,0.0,0.0,100,0.00,OVC,,0.00,WeatherDisplay:10.37,2013-12-20 13:14:00,
2013-12-20 08:15:00,34.5,34.5,30.21,North,349,0.0,0.0,100,0.00,OVC,,0.00,WeatherDisplay:10.37,2013-12-20 13:15:00,
2013-12-20 08:16:00,34.5,34.5,30.21,North,349,0.0,0.0,100,0.00,OVC,,0.00,WeatherDisplay:10.37,2013-12-20 13:16:00,
2013-12-20 08:17:00,34.5,34.5,30.21,North,349,0.0,0.0,100,0.00,OVC,,0.00,WeatherDisplay:10.37,2013-12-20 13:17:00,
2013-12-20 08:19:00,34.6,34.6,30.21,North,349,0.0,0.0,100,0.00,OVC,,0.00,WeatherDisplay:10.37,2013-12-20 13:19:00,
2013-12-20 08:22:00,34.6,34.6,30.21,North,349,0.1,0.0,100,0.00,OVC,,0.00,WeatherDisplay:10.37,2013-12-20 13:22:00,
2013-12-20 08:23:00,34.7,34.7,30.21,North,349,0.0,1.1,100,0.00,OVC,,0.00,WeatherDisplay:10.37,2013-12-20 13:23:00,
2013-12-20 08:24:00,34.7,34.7,30.21,North,349,0.0,0.0,100,0.00,OVC,,0.00,WeatherDisplay:10.37,2013-12-20 13:24:00,
2013-12-20 08:25:00,34.7,34.7,30.21,North,349,0.0,0.0,100,0.00,OVC,,0.00,WeatherDisplay:10.37,2013-12-20 13:25:00,
2013-12-20 08:28:00,34.7,34.7,30.21,North,349,0.0,0.0,100,0.00,OVC,,0.00,WeatherDisplay:10.37,2013-12-20 13:28:00,
2013-12-20 08:29:00,34.8,34.8,30.20,North,349,0.0,0.0,100,0.00,OVC,,0.00,WeatherDisplay:10.37,2013-12-20 13:29:00,
2013-12-20 08:30:00,34.8,34.8,30.20,North,349,0.0,0.0,100,0.00,OVC,,0.00,WeatherDisplay:10.37,2013-12-20 13:30:00,
2013-12-20 08:33:00,34.9,34.9,30.20,North,349,0.0,0.0,100,0.00,OVC,,0.00,WeatherDisplay:10.37,2013-12-20 13:33:00,
2013-12-20 08:34:00,34.9,34.9,30.19,North,351,0.5,2.3,100,0.00,OVC,,0.00,WeatherDisplay:10.37,2013-12-20 13:34:00,
2013-12-20 08:35:00,34.9,34.9,30.19,North,351,0.0,1.1,100,0.00,OVC,,0.00,WeatherDisplay:10.37,2013-12-20 13:35:00,
2013-12-20 08:38:00,35.1,35.1,30.20,North,351,0.0,1.1,100,0.00,OVC,,0.00,WeatherDisplay:10.37,2013-12-20 13:38:00,
2013-12-20 08:39:00,35.2,35.2,30.20,North,351,0.0,0.0,100,0.00,OVC,,0.00,WeatherDisplay:10.37,2013-12-20 13:39:00,
2013-12-20 08:40:00,35.2,35.2,30.20,North,351,0.0,0.0,100,0.00,OVC,,0.00,WeatherDisplay:10.37,2013-12-20 13:40:00,
2013-12-20 08:43:00,35.3,35.3,30.20,North,351,0.0,0.0,100,0.00,OVC,,0.00,WeatherDisplay:10.37,2013-12-20 13:43:00,
2013-12-20 08:44:00,35.3,35.3,30.20,North,351,0.0,0.0,100,0.00,OVC,,0.00,WeatherDisplay:10.37,2013-12-20 13:44:00,
2013-12-20 08:45:00,35.4,35.4,30.21,North,351,0.0,0.0,100,0.00,OVC,,0.00,WeatherDisplay:10.37,2013-12-20 13:45:00,
2013-12-20 08:48:00,35.5,35.5,30.21,NW,308,0.0,0.0,100,0.00,OVC,,0.00,WeatherDisplay:10.37,2013-12-20 13:48:00,
2013-12-20 08:50:00,35.5,35.5,30.20,NW,308,0.0,0.0,100,0.00,OVC,,0.00,WeatherDisplay:10.37,2013-12-20 13:50:00,
2013-12-20 08:53:00,35.6,35.6,30.20,NW,308,0.0,0.0,100,0.00,OVC,,0.00,WeatherDisplay:10.37,2013-12-20 13:53:00,
2013-12-20 08:55:00,35.6,35.6,30.20,NW,308,0.0,0.0,100,0.00,OVC,,0.00,WeatherDisplay:10.37,2013-12-20 13:55:00,
2013-12-20 08:56:00,35.7,35.7,30.20,NW,308,0.2,1.1,100,0.00,OVC,,0.00,WeatherDisplay:10.37,2013-12-20 13:56:00,
2013-12-20 08:58:00,35.7,35.7,30.20,NW,307,1.0,3.0,100,0.00,OVC,,0.00,WeatherDisplay:10.37,2013-12-20 13:58:00,
2013-12-20 08:59:00,35.8,35.8,30.20,WNW,294,2.1,3.5,100,0.00,OVC,,0.00,WeatherDisplay:10.37,2013-12-20 13:59:00,
2013-12-20 09:01:00,35.8,35.8,30.20,WNW,294,1.1,2.3,100,0.00,OVC,,0.00,WeatherDisplay:10.37,2013-12-20 14:01:00,
2013-12-20 09:02:00,35.9,35.9,30.20,WNW,294,0.0,2.3,100,0.00,OVC,,0.00,WeatherDisplay:10.37,2013-12-20 14:02:00,
2013-12-20 09:03:00,35.9,35.9,30.19,WNW,294,0.0,0.0,100,0.00,OVC,,0.00,WeatherDisplay:10.37,2013-12-20 14:03:00,
2013-12-20 09:04:00,36.0,36.0,30.19,WNW,294,0.0,0.0,100,0.00,OVC,,0.00,WeatherDisplay:10.37,2013-12-20 14:04:00,
2013-12-20 09:06:00,36.1,36.1,30.20,WNW,294,0.0,0.0,100,0.00,OVC,,0.00,WeatherDisplay:10.37,2013-12-20 14:06:00,
2013-12-20 09:07:00,36.2,36.2,30.20,WNW,294,0.0,0.0,100,0.00,OVC,,0.00,WeatherDisplay:10.37,2013-12-20 14:07:00,
2013-12-20 09:08:00,36.4,36.4,30.20,WNW,294,0.0,0.0,100,0.00,OVC,,0.00,WeatherDisplay:10.37,2013-12-20 14:08:00,
2013-12-20 09:09:00,36.5,36.5,30.20,WNW,294,0.0,0.0,100,0.00,OVC,,0.00,WeatherDisplay:10.37,2013-12-20 14:09:00,
2013-12-20 09:12:00,36.9,36.9,30.20,WNW,294,0.0,0.0,100,0.00,OVC,,0.00,WeatherDisplay:10.37,2013-12-20 14:12:00,
2013-12-20 09:13:00,37.0,37.0,30.20,WNW,294,0.0,0.0,100,0.00,OVC,,0.00,WeatherDisplay:10.37,2013-12-20 14:13:00,
2013-12-20 09:14:00,37.1,37.1,30.20,WNW,294,0.0,0.0,100,0.00,OVC,,0.00,WeatherDisplay:10.37,2013-12-20 14:14:00,
2013-12-20 09:17:00,37.4,37.4,30.20,WNW,294,0.0,0.0,100,0.00,OVC,,0.00,WeatherDisplay:10.37,2013-12-20 14:17:00,
2013-12-20 09:18:00,37.4,37.4,30.20,WNW,294,0.0,0.0,100,0.00,OVC,,0.00,WeatherDisplay:10.37,2013-12-20 14:18:00,
2013-12-20 09:19:00,37.5,37.5,30.20,WNW,294,0.0,0.0,100,0.00,OVC,,0.00,WeatherDisplay:10.37,2013-12-20 14:19:00,
2013-12-20 09:22:00,37.7,37.7,30.21,WNW,294,0.0,0.0,100,0.00,OVC,,0.00,WeatherDisplay:10.37,2013-12-20 14:22:00,
2013-12-20 09:23:00,37.8,37.8,30.21,WNW,294,0.0,0.0,100,0.00,OVC,,0.00,WeatherDisplay:10.37,2013-12-20 14:23:00,
2013-12-20 09:24:00,37.9,37.9,30.21,WNW,294,0.0,0.0,100,0.00,OVC,,0.00,WeatherDisplay:10.37,2013-12-20 14:24:00,
2013-12-20 09:27:00,38.1,38.1,30.21,WNW,294,0.1,1.1,100,0.00,OVC,,0.00,WeatherDisplay:10.37,2013-12-20 14:27:00,
2013-12-20 09:28:00,38.1,38.1,30.21,WNW,294,0.0,1.1,100,0.00,OVC,,0.00,WeatherDisplay:10.37,2013-12-20 14:28:00,
2013-12-20 09:29:00,38.1,38.1,30.20,WNW,294,0.0,0.0,100,0.00,OVC,,0.00,WeatherDisplay:10.37,2013-12-20 14:29:00,
2013-12-20 09:32:00,38.3,38.3,30.21,WNW,294,0.0,0.0,100,0.00,OVC,,0.00,WeatherDisplay:10.37,2013-12-20 14:32:00,
2013-12-20 09:33:00,38.3,38.3,30.21,WNW,294,0.0,0.0,100,0.00,OVC,,0.00,WeatherDisplay:10.37,2013-12-20 14:33:00,
2013-12-20 09:34:00,38.3,38.3,30.21,WNW,294,0.0,0.0,100,0.00,OVC,,0.00,WeatherDisplay:10.37,2013-12-20 14:34:00,
2013-12-20 09:35:00,38.4,38.4,30.21,WNW,294,0.0,0.0,100,0.00,OVC,,0.00,WeatherDisplay:10.37,2013-12-20 14:35:00,
2013-12-20 09:37:00,38.5,38.5,30.20,WNW,294,0.0,0.0,100,0.00,OVC,,0.00,WeatherDisplay:10.37,2013-12-20 14:37:00,
2013-12-20 09:38:00,38.5,38.5,30.20,WNW,294,0.0,0.0,100,0.00,OVC,,0.00,WeatherDisplay:10.37,2013-12-20 14:38:00,
2013-12-20 09:39:00,38.6,38.6,30.21,WNW,294,0.0,0.0,100,0.00,OVC,,0.00,WeatherDisplay:10.37,2013-12-20 14:39:00,
2013-12-20 09:40:00,38.6,38.6,30.21,WNW,294,0.0,0.0,100,0.00,OVC,,0.00,WeatherDisplay:10.37,2013-12-20 14:40:00,
2013-12-20 09:43:00,38.8,38.8,30.21,WNW,294,0.0,0.0,100,0.00,OVC,,0.00,WeatherDisplay:10.37,2013-12-20 14:43:00,
2013-12-20 09:45:00,38.9,38.9,30.21,WNW,295,1.2,3.5,100,0.00,OVC,,0.00,WeatherDisplay:10.37,2013-12-20 14:45:00,
2013-12-20 09:48:00,39.1,39.1,30.21,North,7,0.4,2.0,100,0.00,OVC,,0.00,WeatherDisplay:10.37,2013-12-20 14:48:00,
2013-12-20 09:49:00,39.2,39.2,30.21,North,8,1.4,2.3,100,0.00,OVC,,0.00,WeatherDisplay:10.37,2013-12-20 14:49:00,
2013-12-20 09:50:00,39.2,39.2,30.21,North,8,1.1,2.3,100,0.00,OVC,,0.00,WeatherDisplay:10.37,2013-12-20 14:50:00,
2013-12-20 09:51:00,39.2,39.2,30.21,North,9,0.0,2.3,100,0.00,OVC,,0.00,WeatherDisplay:10.37,2013-12-20 14:51:00,
2013-12-20 09:53:00,39.4,39.4,30.21,NNE,13,0.0,2.3,100,0.00,OVC,,0.00,WeatherDisplay:10.37,2013-12-20 14:53:00,
2013-12-20 09:55:00,39.6,39.6,30.21,NNE,12,0.6,2.3,100,0.00,OVC,,0.00,WeatherDisplay:10.37,2013-12-20 14:55:00,
2013-12-20 09:56:00,39.6,39.6,30.20,NNE,13,0.0,0.0,100,0.00,OVC,,0.00,WeatherDisplay:10.37,2013-12-20 14:56:00,
2013-12-20 09:59:00,39.8,39.8,30.20,NNE,13,0.0,0.0,100,0.00,OVC,,0.00,WeatherDisplay:10.37,2013-12-20 14:59:00,
2013-12-20 10:00:00,39.9,39.9,30.20,NNE,13,0.0,1.1,100,0.00,BKN,,0.00,WeatherDisplay:10.37,2013-12-20 15:00:00,
2013-12-20 10:01:00,40.0,40.0,30.20,NNE,13,0.0,0.0,100,0.00,BKN,,0.00,WeatherDisplay:10.37,2013-12-20 15:01:00,
2013-12-20 10:04:00,40.2,40.2,30.20,NNE,32,1.7,3.5,100,0.00,BKN,,0.00,WeatherDisplay:10.37,2013-12-20 15:04:00,
2013-12-20 10:05:00,40.3,40.3,30.20,NNE,32,0.4,3.5,100,0.00,BKN,,0.00,WeatherDisplay:10.37,2013-12-20 15:05:00,
2013-12-20 10:06:00,40.3,40.3,30.20,NNE,32,0.1,2.3,100,0.00,BKN,,0.00,WeatherDisplay:10.37,2013-12-20 15:06:00,
2013-12-20 10:09:00,40.5,40.5,30.20,NNE,32,0.3,2.3,100,0.00,BKN,,0.00,WeatherDisplay:10.37,2013-12-20 15:09:00,
2013-12-20 10:10:00,40.6,40.6,30.20,NNE,32,0.3,2.3,100,0.00,BKN,,0.00,WeatherDisplay:10.37,2013-12-20 15:10:00,
2013-12-20 10:11:00,40.7,40.7,30.20,NNE,32,1.6,2.3,100,0.00,BKN,,0.00,WeatherDisplay:10.37,2013-12-20 15:11:00,
2013-12-20 10:13:00,40.8,40.8,30.20,NNE,32,0.0,0.0,100,0.00,BKN,,0.00,WeatherDisplay:10.37,2013-12-20 15:13:00,
2013-12-20 10:14:00,40.9,40.9,30.20,NE,34,0.3,2.3,100,0.00,BKN,,0.00,WeatherDisplay:10.37,2013-12-20 15:14:00,
2013-12-20 10:15:00,41.0,41.0,30.20,NE,40,0.0,2.3,100,0.00,BKN,,0.00,WeatherDisplay:10.37,2013-12-20 15:15:00,
2013-12-20 10:16:00,41.1,41.1,30.20,NE,40,0.0,1.1,100,0.00,BKN,,0.00,WeatherDisplay:10.37,2013-12-20 15:16:00,
2013-12-20 10:17:00,41.2,41.2,30.20,NE,40,0.0,0.0,100,0.00,BKN,,0.00,WeatherDisplay:10.37,2013-12-20 15:17:00,
2013-12-20 10:18:00,41.3,41.3,30.20,NE,40,0.0,0.0,100,0.00,BKN,,0.00,WeatherDisplay:10.37,2013-12-20 15:18:00,
2013-12-20 10:20:00,41.6,41.6,30.20,NE,40,0.0,0.0,100,0.00,BKN,,0.00,WeatherDisplay:10.37,2013-12-20 15:20:00,
2013-12-20 10:21:00,41.8,41.8,30.20,NE,40,0.0,0.0,100,0.00,BKN,,0.00,WeatherDisplay:10.37,2013-12-20 15:21:00,
2013-12-20 10:22:00,41.9,41.9,30.20,NE,40,0.0,1.1,100,0.00,BKN,,0.00,WeatherDisplay:10.37,2013-12-20 15:22:00,
2013-12-20 10:24:00,42.1,42.1,30.20,NE,42,0.0,0.0,100,0.00,BKN,,0.00,WeatherDisplay:10.37,2013-12-20 15:24:00,
2013-12-20 10:25:00,42.3,42.3,30.20,NE,42,0.0,1.1,100,0.00,BKN,,0.00,WeatherDisplay:10.37,2013-12-20 15:25:00,
2013-12-20 10:26:00,42.5,42.5,30.20,NE,42,0.0,0.0,100,0.00,BKN,,0.00,WeatherDisplay:10.37,2013-12-20 15:26:00,
2013-12-20 10:27:00,42.6,42.6,30.20,NE,41,0.0,0.0,100,0.00,BKN,,0.00,WeatherDisplay:10.37,2013-12-20 15:27:00,
2013-12-20 10:29:00,42.8,42.8,30.19,NE,43,0.0,0.0,100,0.00,BKN,,0.00,WeatherDisplay:10.37,2013-12-20 15:29:00,
2013-12-20 10:30:00,42.9,42.9,30.19,NE,45,0.9,2.0,100,0.00,BKN,,0.00,WeatherDisplay:10.37,2013-12-20 15:30:00,
2013-12-20 10:32:00,43.0,43.0,30.19,NE,45,0.0,2.3,100,0.00,BKN,,0.00,WeatherDisplay:10.37,2013-12-20 15:32:00,
2013-12-20 10:33:00,43.1,43.1,30.19,NE,45,0.0,0.0,100,0.00,BKN,,0.00,WeatherDisplay:10.37,2013-12-20 15:33:00,
2013-12-20 10:34:00,43.3,43.3,30.19,NE,45,0.0,0.0,100,0.00,BKN,,0.00,WeatherDisplay:10.37,2013-12-20 15:34:00,
2013-12-20 10:35:00,43.4,43.4,30.19,NE,45,0.0,1.0,100,0.00,BKN,,0.00,WeatherDisplay:10.37,2013-12-20 15:35:00,
2013-12-20 10:36:00,43.4,43.4,30.19,ENE,61,1.2,1.2,100,0.00,BKN,,0.00,WeatherDisplay:10.37,2013-12-20 15:36:00,
2013-12-20 10:37:00,43.5,43.5,30.19,ENE,64,1.3,3.5,100,0.00,BKN,,0.00,WeatherDisplay:10.37,2013-12-20 15:37:00,
2013-12-20 10:38:00,43.6,43.6,30.19,ENE,71,0.0,3.5,100,0.00,BKN,,0.00,WeatherDisplay:10.37,2013-12-20 15:38:00,
2013-12-20 10:39:00,43.6,43.6,30.19,ENE,71,0.0,0.0,100,0.00,BKN,,0.00,WeatherDisplay:10.37,2013-12-20 15:39:00,
2013-12-20 10:40:00,43.7,43.7,30.19,ENE,71,0.0,0.0,100,0.00,BKN,,0.00,WeatherDisplay:10.37,2013-12-20 15:40:00,
2013-12-20 10:42:00,43.8,43.8,30.19,East,88,0.7,4.0,100,0.00,BKN,,0.00,WeatherDisplay:10.37,2013-12-20 15:42:00,
2013-12-20 10:43:00,43.9,43.9,30.18,SE,134,4.1,5.0,100,0.00,BKN,,0.00,WeatherDisplay:10.37,2013-12-20 15:43:00,
2013-12-20 10:44:00,43.9,43.9,30.18,SE,128,4.1,5.8,100,0.00,BKN,,0.00,WeatherDisplay:10.37,2013-12-20 15:44:00,
2013-12-20 10:45:00,44.0,44.0,30.18,SE,128,0.9,4.6,100,0.00,BKN,,0.00,WeatherDisplay:10.37,2013-12-20 15:45:00,
2013-12-20 10:46:00,44.0,44.0,30.19,ESE,107,0.1,3.5,100,0.00,BKN,,0.00,WeatherDisplay:10.37,2013-12-20 15:46:00,
2013-12-20 10:47:00,44.1,44.1,30.19,ESE,106,0.0,1.1,100,0.00,BKN,,0.00,WeatherDisplay:10.37,2013-12-20 15:47:00,
2013-12-20 10:48:00,44.2,44.2,30.19,ESE,107,0.0,0.0,100,0.00,BKN,,0.00,WeatherDisplay:10.37,2013-12-20 15:48:00,
2013-12-20 10:49:00,44.3,44.3,30.19,ESE,107,0.0,1.1,100,0.00,BKN,,0.00,WeatherDisplay:10.37,2013-12-20 15:49:00,
2013-12-20 10:50:00,44.4,44.4,30.19,ESE,107,0.2,3.5,100,0.00,BKN,,0.00,WeatherDisplay:10.37,2013-12-20 15:50:00,
2013-12-20 10:51:00,44.5,44.5,30.19,ESE,107,0.0,3.5,100,0.00,BKN,,0.00,WeatherDisplay:10.37,2013-12-20 15:51:00,
2013-12-20 10:52:00,44.6,44.6,30.19,ESE,108,0.0,0.0,100,0.00,BKN,,0.00,WeatherDisplay:10.37,2013-12-20 15:52:00,
2013-12-20 10:53:00,44.6,44.6,30.19,ESE,108,0.0,0.0,100,0.00,BKN,,0.00,WeatherDisplay:10.37,2013-12-20 15:53:00,
2013-12-20 10:54:00,44.7,44.7,30.19,SE,141,1.2,3.5,100,0.00,BKN,,0.00,WeatherDisplay:10.37,2013-12-20 15:54:00,
2013-12-20 10:56:00,44.8,44.8,30.20,SSW,197,1.5,3.5,100,0.00,BKN,,0.00,WeatherDisplay:10.37,2013-12-20 15:56:00,
2013-12-20 10:57:00,44.9,44.9,30.20,SSW,198,1.0,3.5,100,0.00,BKN,,0.00,WeatherDisplay:10.37,2013-12-20 15:57:00,
2013-12-20 10:58:00,44.9,44.9,30.20,SSW,198,0.9,3.5,100,0.00,BKN,,0.00,WeatherDisplay:10.37,2013-12-20 15:58:00,
2013-12-20 10:59:00,45.0,45.0,30.20,SSW,198,0.0,0.0,100,0.00,BKN,,0.00,WeatherDisplay:10.37,2013-12-20 15:59:00,
2013-12-20 11:01:00,45.2,45.2,30.20,SSW,197,0.0,0.0,100,0.00,OVC,,0.00,WeatherDisplay:10.37,2013-12-20 16:01:00,
2013-12-20 11:02:00,45.2,45.2,30.20,SSW,198,0.0,0.0,100,0.00,OVC,,0.00,WeatherDisplay:10.37,2013-12-20 16:02:00,
2013-12-20 11:03:00,45.3,45.3,30.20,SSW,198,0.0,0.0,100,0.00,OVC,,0.00,WeatherDisplay:10.37,2013-12-20 16:03:00,
2013-12-20 11:04:00,45.4,45.4,30.19,SSW,198,0.0,0.0,100,0.00,OVC,,0.00,WeatherDisplay:10.37,2013-12-20 16:04:00,
2013-12-20 11:06:00,45.6,45.6,30.19,SSW,198,0.0,0.0,100,0.00,OVC,,0.00,WeatherDisplay:10.37,2013-12-20 16:06:00,
2013-12-20 11:07:00,45.6,45.6,30.19,SSW,198,0.0,0.0,100,0.00,OVC,,0.00,WeatherDisplay:10.37,2013-12-20 16:07:00,
2013-12-20 11:08:00,45.7,45.7,30.19,SSW,198,0.0,0.0,100,0.00,OVC,,0.00,WeatherDisplay:10.37,2013-12-20 16:08:00,
2013-12-20 11:09:00,45.7,45.7,30.19,SSW,198,0.0,0.0,100,0.00,OVC,,0.00,WeatherDisplay:10.37,2013-12-20 16:09:00,
2013-12-20 11:12:00,45.8,45.8,30.19,SSW,198,0.0,0.0,100,0.00,OVC,,0.00,WeatherDisplay:10.37,2013-12-20 16:12:00,
2013-12-20 11:13:00,45.9,45.9,30.20,SSW,198,0.1,0.0,100,0.00,OVC,,0.00,WeatherDisplay:10.37,2013-12-20 16:13:00,
2013-12-20 11:14:00,45.9,45.9,30.20,SSW,198,0.0,1.1,100,0.00,OVC,,0.00,WeatherDisplay:10.37,2013-12-20 16:14:00,
2013-12-20 11:15:00,46.0,46.0,30.20,SSW,198,0.0,0.0,100,0.00,OVC,,0.00,WeatherDisplay:10.37,2013-12-20 16:15:00,
2013-12-20 11:17:00,46.1,46.1,30.20,SSW,197,0.0,0.0,100,0.00,OVC,,0.00,WeatherDisplay:10.37,2013-12-20 16:17:00,
2013-12-20 11:18:00,46.1,46.1,30.20,SSW,198,0.7,1.0,100,0.00,OVC,,0.00,WeatherDisplay:10.37,2013-12-20 16:18:00,
2013-12-20 11:19:00,46.1,46.1,30.19,SSW,198,1.3,2.3,100,0.00,OVC,,0.00,WeatherDisplay:10.37,2013-12-20 16:19:00,
2013-12-20 11:21:00,46.2,46.2,30.19,SSW,198,0.0,0.0,100,0.00,OVC,,0.00,WeatherDisplay:10.37,2013-12-20 16:21:00,
2013-12-20 11:22:00,46.3,46.3,30.19,SSW,195,1.6,2.3,100,0.00,OVC,,0.00,WeatherDisplay:10.37,2013-12-20 16:22:00,
2013-12-20 11:23:00,46.3,46.3,30.19,SSW,194,0.4,2.3,100,0.00,OVC,,0.00,WeatherDisplay:10.37,2013-12-20 16:23:00,
2013-12-20 11:24:00,46.3,46.3,30.19,SSW,194,0.0,1.1,100,0.00,OVC,,0.00,WeatherDisplay:10.37,2013-12-20 16:24:00,
2013-12-20 11:25:00,46.4,46.4,30.19,ESE,122,0.6,1.1,100,0.00,OVC,,0.00,WeatherDisplay:10.37,2013-12-20 16:25:00,
2013-12-20 11:26:00,46.4,46.4,30.18,ESE,122,0.0,2.3,100,0.00,OVC,,0.00,WeatherDisplay:10.37,2013-12-20 16:26:00,
2013-12-20 11:28:00,46.5,46.5,30.18,ESE,122,0.0,0.0,100,0.00,OVC,,0.00,WeatherDisplay:10.37,2013-12-20 16:28:00,
2013-12-20 11:29:00,46.5,46.5,30.18,ESE,122,0.0,0.0,100,0.00,OVC,,0.00,WeatherDisplay:10.37,2013-12-20 16:29:00,
2013-12-20 11:31:00,46.7,46.7,30.18,ESE,122,0.4,2.3,100,0.00,OVC,,0.00,WeatherDisplay:10.37,2013-12-20 16:31:00,
2013-12-20 11:33:00,46.8,46.8,30.18,ESE,122,0.0,0.0,100,0.00,OVC,,0.00,WeatherDisplay:10.37,2013-12-20 16:33:00,
2013-12-20 11:34:00,46.9,46.9,30.17,ESE,102,0.5,2.0,100,0.00,OVC,,0.00,WeatherDisplay:10.37,2013-12-20 16:34:00,
2013-12-20 11:36:00,47.1,47.1,30.17,East,100,0.1,1.1,100,0.00,OVC,,0.00,WeatherDisplay:10.37,2013-12-20 16:36:00,
2013-12-20 11:38:00,47.4,47.4,30.17,East,99,1.0,4.0,100,0.00,OVC,,0.00,WeatherDisplay:10.37,2013-12-20 16:38:00,
2013-12-20 11:39:00,47.5,47.5,30.17,East,98,3.4,4.6,100,0.00,OVC,,0.00,WeatherDisplay:10.37,2013-12-20 16:39:00,
2013-12-20 11:40:00,47.6,47.6,30.17,East,100,3.5,4.6,100,0.00,OVC,,0.00,WeatherDisplay:10.37,2013-12-20 16:40:00,
2013-12-20 11:42:00,47.8,47.8,30.17,ESE,106,1.2,3.5,100,0.00,OVC,,0.00,WeatherDisplay:10.37,2013-12-20 16:42:00,
2013-12-20 11:43:00,48.0,48.0,30.17,East,96,3.0,4.6,100,0.00,OVC,,0.00,WeatherDisplay:10.37,2013-12-20 16:43:00,
2013-12-20 11:44:00,48.1,48.1,30.17,East,96,2.2,4.6,100,0.00,OVC,,0.00,WeatherDisplay:10.37,2013-12-20 16:44:00,
2013-12-20 11:45:00,48.2,48.2,30.17,East,99,3.6,5.8,100,0.00,OVC,,0.00,WeatherDisplay:10.37,2013-12-20 16:45:00,
2013-12-20 11:47:00,48.4,48.4,30.17,ESE,104,2.6,4.6,100,0.00,OVC,,0.00,WeatherDisplay:10.37,2013-12-20 16:47:00,
2013-12-20 11:49:00,48.6,48.6,30.17,ESE,103,0.3,2.3,100,0.00,OVC,,0.00,WeatherDisplay:10.37,2013-12-20 16:49:00,
2013-12-20 11:50:00,48.7,48.7,30.17,South,174,0.3,3.0,100,0.00,OVC,,0.00,WeatherDisplay:10.37,2013-12-20 16:50:00,
2013-12-20 11:51:00,48.7,48.7,30.17,SSW,206,1.2,3.5,100,0.00,OVC,,0.00,WeatherDisplay:10.37,2013-12-20 16:51:00,
2013-12-20 11:52:00,48.8,48.8,30.17,SSW,206,0.4,2.3,100,0.00,OVC,,0.00,WeatherDisplay:10.37,2013-12-20 16:52:00,
2013-12-20 11:54:00,49.0,49.0,30.17,SSW,209,3.5,6.9,100,0.00,OVC,,0.00,WeatherDisplay:10.37,2013-12-20 16:54:00,
2013-12-20 11:55:00,49.0,49.0,30.17,WSW,247,2.5,6.0,100,0.00,OVC,,0.00,WeatherDisplay:10.37,2013-12-20 16:55:00,
2013-12-20 11:56:00,49.1,49.1,30.17,WSW,248,3.7,6.9,100,0.00,OVC,,0.00,WeatherDisplay:10.37,2013-12-20 16:56:00,
2013-12-20 11:57:00,49.2,49.2,30.17,SW,234,2.5,4.6,100,0.00,OVC,,0.00,WeatherDisplay:10.37,2013-12-20 16:57:00,
2013-12-20 11:59:00,49.3,49.3,30.17,SW,235,0.0,0.0,100,0.00,OVC,,0.00,WeatherDisplay:10.37,2013-12-20 16:59:00,
2013-12-20 12:00:00,49.3,49.3,30.17,SW,234,0.0,0.0,100,0.00,OVC,,0.00,WeatherDisplay:10.37,2013-12-20 17:00:00,
2013-12-20 12:01:00,49.3,49.3,30.17,SW,235,0.0,0.0,100,0.00,OVC,,0.00,WeatherDisplay:10.37,2013-12-20 17:01:00,
2013-12-20 12:02:00,49.5,49.5,30.17,SW,234,0.0,0.0,100,0.00,OVC,,0.00,WeatherDisplay:10.37,2013-12-20 17:02:00,
2013-12-20 12:03:00,49.5,49.5,30.17,SW,235,0.0,0.0,100,0.00,OVC,,0.00,WeatherDisplay:10.37,2013-12-20 17:03:00,
2013-12-20 12:04:00,49.5,49.5,30.17,SW,234,0.1,1.1,100,0.00,OVC,,0.00,WeatherDisplay:10.37,2013-12-20 17:04:00,
2013-12-20 12:05:00,49.5,49.5,30.17,SW,235,0.0,1.1,100,0.00,OVC,,0.00,WeatherDisplay:10.37,2013-12-20 17:05:00,
2013-12-20 12:06:00,49.5,49.5,30.17,SW,235,0.0,0.0,100,0.00,OVC,,0.00,WeatherDisplay:10.37,2013-12-20 17:06:00,
2013-12-20 12:08:00,49.6,49.6,30.17,SW,235,0.0,0.0,100,0.00,OVC,,0.00,WeatherDisplay:10.37,2013-12-20 17:08:00,
2013-12-20 12:09:00,49.6,49.6,30.17,SW,234,0.0,0.0,100,0.00,OVC,,0.00,WeatherDisplay:10.37,2013-12-20 17:09:00,
2013-12-20 12:11:00,49.5,49.5,30.17,SW,234,0.0,0.0,100,0.00,OVC,,0.00,WeatherDisplay:10.37,2013-12-20 17:11:00,
2013-12-20 12:12:00,49.5,49.5,30.17,SW,234,0.0,0.0,100,0.00,OVC,,0.00,WeatherDisplay:10.37,2013-12-20 17:12:00,
2013-12-20 12:13:00,49.4,49.4,30.17,WNW,300,0.5,2.3,100,0.00,OVC,,0.00,WeatherDisplay:10.37,2013-12-20 17:13:00,
2013-12-20 12:14:00,49.4,49.4,30.16,NNW,327,2.6,3.5,100,0.00,OVC,,0.00,WeatherDisplay:10.37,2013-12-20 17:14:00,
2013-12-20 12:15:00,49.4,49.4,30.16,NNW,327,2.5,3.5,100,0.00,OVC,,0.00,WeatherDisplay:10.37,2013-12-20 17:15:00,
2013-12-20 12:16:00,49.3,49.3,30.16,NNE,27,0.1,3.5,100,0.00,OVC,,0.00,WeatherDisplay:10.37,2013-12-20 17:16:00,
2013-12-20 12:17:00,49.3,49.3,30.16,North,10,2.1,3.5,100,0.00,OVC,,0.00,WeatherDisplay:10.37,2013-12-20 17:17:00,
2013-12-20 12:18:00,49.2,49.2,30.17,North,2,1.6,3.5,100,0.00,OVC,,0.00,WeatherDisplay:10.37,2013-12-20 17:18:00,
2013-12-20 12:19:00,49.2,49.2,30.16,NNE,14,0.4,2.3,100,0.00,OVC,,0.00,WeatherDisplay:10.37,2013-12-20 17:19:00,
2013-12-20 12:20:00,49.2,49.2,30.16,NNE,14,0.4,2.3,100,0.00,OVC,,0.00,WeatherDisplay:10.37,2013-12-20 17:20:00,
2013-12-20 12:21:00,49.1,49.1,30.16,NNE,14,0.0,1.0,100,0.00,OVC,,0.00,WeatherDisplay:10.37,2013-12-20 17:21:00,
2013-12-20 12:22:00,49.1,49.1,30.16,North,355,4.9,5.0,100,0.00,OVC,,0.00,WeatherDisplay:10.37,2013-12-20 17:22:00,
2013-12-20 12:24:00,49.1,49.1,30.16,NNW,340,2.8,5.8,100,0.00,OVC,,0.00,WeatherDisplay:10.37,2013-12-20 17:24:00,
2013-12-20 12:25:00,49.0,49.0,30.16,NNW,340,1.2,3.5,100,0.00,OVC,,0.00,WeatherDisplay:10.37,2013-12-20 17:25:00,
2013-12-20 12:26:00,49.0,49.0,30.16,NNW,340,1.5,2.3,100,0.00,OVC,,0.00,WeatherDisplay:10.37,2013-12-20 17:26:00,
2013-12-20 12:28:00,49.0,49.0,30.16,North,3,1.4,2.3,100,0.00,OVC,,0.00,WeatherDisplay:10.37,2013-12-20 17:28:00,
2013-12-20 12:29:00,49.0,49.0,30.16,North,355,1.7,4.6,100,0.00,OVC,,0.00,WeatherDisplay:10.37,2013-12-20 17:29:00,
2013-12-20 12:30:00,48.9,48.9,30.15,North,355,0.0,3.5,100,0.00,OVC,,0.00,WeatherDisplay:10.37,2013-12-20 17:30:00,
2013-12-20 12:31:00,48.9,48.9,30.15,North,355,0.0,0.0,100,0.00,OVC,,0.00,WeatherDisplay:10.37,2013-12-20 17:31:00,
2013-12-20 12:32:00,48.9,48.9,30.15,North,355,0.1,2.3,100,0.00,OVC,,0.00,WeatherDisplay:10.37,2013-12-20 17:32:00,
2013-12-20 12:33:00,48.9,48.9,30.15,North,355,0.1,0.0,100,0.00,OVC,,0.00,WeatherDisplay:10.37,2013-12-20 17:33:00,
2013-12-20 12:34:00,48.9,48.9,30.15,North,355,0.0,1.1,100,0.00,OVC,,0.00,WeatherDisplay:10.37,2013-12-20 17:34:00,
2013-12-20 12:36:00,48.9,48.9,30.15,North,355,0.0,0.0,100,0.00,OVC,,0.00,WeatherDisplay:10.37,2013-12-20 17:36:00,
2013-12-20 12:37:00,49.0,49.0,30.15,North,355,0.0,0.0,100,0.00,OVC,,0.00,WeatherDisplay:10.37,2013-12-20 17:37:00,
2013-12-20 12:38:00,49.0,49.0,30.15,North,355,0.0,0.0,100,0.00,OVC,,0.00,WeatherDisplay:10.37,2013-12-20 17:38:00,
2013-12-20 12:40:00,49.1,49.1,30.15,North,355,0.0,1.1,100,0.00,OVC,,0.00,WeatherDisplay:10.37,2013-12-20 17:40:00,
2013-12-20 12:41:00,49.2,49.2,30.15,North,355,0.0,0.0,100,0.00,OVC,,0.00,WeatherDisplay:10.37,2013-12-20 17:41:00,
2013-12-20 12:42:00,49.2,49.2,30.15,North,355,0.0,0.0,100,0.00,OVC,,0.00,WeatherDisplay:10.37,2013-12-20 17:42:00,
2013-12-20 12:43:00,49.3,49.3,30.15,North,355,0.0,0.0,100,0.00,OVC,,0.00,WeatherDisplay:10.37,2013-12-20 17:43:00,
2013-12-20 12:44:00,49.4,49.4,30.15,North,355,0.2,0.0,100,0.00,OVC,,0.00,WeatherDisplay:10.37,2013-12-20 17:44:00,
2013-12-20 12:46:00,49.8,49.8,30.14,North,355,0.0,1.1,100,0.00,OVC,,0.00,WeatherDisplay:10.37,2013-12-20 17:46:00,
2013-12-20 12:47:00,49.8,49.8,30.14,NE,43,0.3,1.0,100,0.00,OVC,,0.00,WeatherDisplay:10.37,2013-12-20 17:47:00,
2013-12-20 12:48:00,50.0,50.0,30.14,ENE,60,0.9,2.3,100,0.00,OVC,,0.00,WeatherDisplay:10.37,2013-12-20 17:48:00,
2013-12-20 12:50:00,50.3,50.3,30.14,ENE,64,0.1,2.3,100,0.00,OVC,,0.00,WeatherDisplay:10.37,2013-12-20 17:50:00,
2013-12-20 12:51:00,50.5,50.5,30.14,ENE,64,0.5,0.0,100,0.00,OVC,,0.00,WeatherDisplay:10.37,2013-12-20 17:51:00,
2013-12-20 12:52:00,50.6,50.6,30.14,ENE,64,0.5,2.3,100,0.00,OVC,,0.00,WeatherDisplay:10.37,2013-12-20 17:52:00,
2013-12-20 12:53:00,50.7,50.7,30.14,ENE,64,0.1,1.1,100,0.00,OVC,,0.00,WeatherDisplay:10.37,2013-12-20 17:53:00,
2013-12-20 12:55:00,50.9,50.9,30.14,ENE,64,0.0,0.0,100,0.00,OVC,,0.00,WeatherDisplay:10.37,2013-12-20 17:55:00,
2013-12-20 12:57:00,51.0,51.0,30.13,ENE,64,0.0,0.0,100,0.00,OVC,,0.00,WeatherDisplay:10.37,2013-12-20 17:57:00,
2013-12-20 12:58:00,51.1,51.1,30.14,ENE,64,0.0,0.0,100,0.00,OVC,,0.00,WeatherDisplay:10.37,2013-12-20 17:58:00,
2013-12-20 13:00:00,51.2,51.2,30.14,ENE,64,0.0,0.0,100,0.00,OVC,,0.00,WeatherDisplay:10.37,2013-12-20 18:00:00,
2013-12-20 13:02:00,51.3,51.3,30.14,ENE,64,0.0,0.0,100,0.00,OVC,,0.00,WeatherDisplay:10.37,2013-12-20 18:02:00,
2013-12-20 13:03:00,51.4,51.4,30.14,ENE,64,0.0,0.0,100,0.00,OVC,,0.00,WeatherDisplay:10.37,2013-12-20 18:03:00,
2013-12-20 13:06:00,51.8,51.8,30.14,ENE,64,0.0,0.0,100,0.00,OVC,,0.00,WeatherDisplay:10.37,2013-12-20 18:06:00,
2013-12-20 13:07:00,51.9,51.9,30.14,ENE,64,0.0,0.0,100,0.00,OVC,,0.00,WeatherDisplay:10.37,2013-12-20 18:07:00,
2013-12-20 13:08:00,52.0,52.0,30.14,ENE,64,0.0,0.0,100,0.00,OVC,,0.00,WeatherDisplay:10.37,2013-12-20 18:08:00,
2013-12-20 13:09:00,52.1,52.1,30.14,ENE,64,0.2,2.3,100,0.00,OVC,,0.00,WeatherDisplay:10.37,2013-12-20 18:09:00,
2013-12-20 13:12:00,52.4,52.4,30.14,WSW,237,2.5,4.6,100,0.00,OVC,,0.00,WeatherDisplay:10.37,2013-12-20 18:12:00,
2013-12-20 13:13:00,52.5,52.5,30.14,WSW,239,0.5,4.6,100,0.00,OVC,,0.00,WeatherDisplay:10.37,2013-12-20 18:13:00,
2013-12-20 13:14:00,52.5,52.5,30.13,WSW,238,0.0,1.1,100,0.00,OVC,,0.00,WeatherDisplay:10.37,2013-12-20 18:14:00,
2013-12-20 13:15:00,52.4,52.4,30.13,WSW,238,0.0,0.0,100,0.00,OVC,,0.00,WeatherDisplay:10.37,2013-12-20 18:15:00,
2013-12-20 13:17:00,52.4,52.4,30.13,WSW,239,0.0,0.0,100,0.00,OVC,,0.00,WeatherDisplay:10.37,2013-12-20 18:17:00,
2013-12-20 13:18:00,52.3,52.3,30.13,WSW,239,0.0,0.0,100,0.00,OVC,,0.00,WeatherDisplay:10.37,2013-12-20 18:18:00,
2013-12-20 13:20:00,52.3,52.3,30.13,SSW,192,0.0,1.1,100,0.00,OVC,,0.00,WeatherDisplay:10.37,2013-12-20 18:20:00,
2013-12-20 13:22:00,52.2,52.2,30.13,SSW,192,0.0,0.0,100,0.00,OVC,,0.00,WeatherDisplay:10.37,2013-12-20 18:22:00,
2013-12-20 13:23:00,52.2,52.2,30.13,SSW,193,0.0,0.0,100,0.00,OVC,,0.00,WeatherDisplay:10.37,2013-12-20 18:23:00,
2013-12-20 13:25:00,52.1,52.1,30.14,SSW,193,0.0,0.0,100,0.00,OVC,,0.00,WeatherDisplay:10.37,2013-12-20 18:25:00,
2013-12-20 13:27:00,52.0,52.0,30.13,SSW,193,0.0,0.0,100,0.00,OVC,,0.00,WeatherDisplay:10.37,2013-12-20 18:27:00,
2013-12-20 13:28:00,51.9,51.9,30.13,SSW,193,0.0,0.0,100,0.00,OVC,,0.00,WeatherDisplay:10.37,2013-12-20 18:28:00,
2013-12-20 13:30:00,51.9,51.9,30.13,SSW,193,0.0,0.0,100,0.00,OVC,,0.00,WeatherDisplay:10.37,2013-12-20 18:30:00,
2013-12-20 13:33:00,51.8,51.8,30.13,SSW,192,0.0,0.0,100,0.00,OVC,,0.00,WeatherDisplay:10.37,2013-12-20 18:33:00,
2013-12-20 13:35:00,51.8,51.8,30.13,SSW,192,0.0,0.0,100,0.00,OVC,,0.00,WeatherDisplay:10.37,2013-12-20 18:35:00,
2013-12-20 13:36:00,51.8,51.8,30.13,SSW,193,0.0,0.0,100,0.00,OVC,,0.00,WeatherDisplay:10.37,2013-12-20 18:36:00,
2013-12-20 13:38:00,51.8,51.8,30.12,SSW,193,0.0,0.0,100,0.00,OVC,,0.00,WeatherDisplay:10.37,2013-12-20 18:38:00,
2013-12-20 13:40:00,51.9,51.9,30.12,SSW,193,0.0,0.0,100,0.00,OVC,,0.00,WeatherDisplay:10.37,2013-12-20 18:40:00,
2013-12-20 13:41:00,51.9,51.9,30.13,SSW,193,0.0,0.0,100,0.00,OVC,,0.00,WeatherDisplay:10.37,2013-12-20 18:41:00,
2013-12-20 13:43:00,51.9,51.9,30.13,SSW,193,0.0,0.0,100,0.00,OVC,,0.00,WeatherDisplay:10.37,2013-12-20 18:43:00,
2013-12-20 13:44:00,51.9,51.9,30.13,SSW,193,0.0,0.0,100,0.00,OVC,,0.00,WeatherDisplay:10.37,2013-12-20 18:44:00,
2013-12-20 13:45:00,51.9,51.9,30.13,SSW,193,0.0,0.0,100,0.00,OVC,,0.00,WeatherDisplay:10.37,2013-12-20 18:45:00,
2013-12-20 13:46:00,51.9,51.9,30.13,SSW,193,0.0,0.0,100,0.00,OVC,,0.00,WeatherDisplay:10.37,2013-12-20 18:46:00,
2013-12-20 13:48:00,51.9,51.9,30.13,SSW,192,0.0,0.0,100,0.00,OVC,,0.00,WeatherDisplay:10.37,2013-12-20 18:48:00,
2013-12-20 13:49:00,51.9,51.9,30.13,SSW,193,0.0,0.0,100,0.00,OVC,,0.00,WeatherDisplay:10.37,2013-12-20 18:49:00,
2013-12-20 13:51:00,51.9,51.9,30.13,SSW,192,0.0,0.0,100,0.00,OVC,,0.00,WeatherDisplay:10.37,2013-12-20 18:51:00,
2013-12-20 13:52:00,51.9,51.9,30.13,SSW,193,0.1,0.0,100,0.00,OVC,,0.00,WeatherDisplay:10.37,2013-12-20 18:52:00,
2013-12-20 13:53:00,52.0,52.0,30.13,WSW,240,2.3,3.0,100,0.00,OVC,,0.00,WeatherDisplay:10.37,2013-12-20 18:53:00,
2013-12-20 13:54:00,52.1,52.1,30.13,SW,231,3.3,4.0,100,0.00,OVC,,0.00,WeatherDisplay:10.37,2013-12-20 18:54:00,
2013-12-20 13:56:00,52.2,52.2,30.13,SW,224,3.5,5.0,100,0.00,OVC,,0.00,WeatherDisplay:10.37,2013-12-20 18:56:00,
2013-12-20 13:57:00,52.3,52.3,30.13,SW,223,2.2,5.8,100,0.00,OVC,,0.00,WeatherDisplay:10.37,2013-12-20 18:57:00,
2013-12-20 13:58:00,52.3,52.3,30.13,SW,214,0.6,4.6,100,0.00,OVC,,0.00,WeatherDisplay:10.37,2013-12-20 18:58:00,
2013-12-20 13:59:00,52.2,52.2,30.13,SSW,206,1.4,3.5,100,0.00,OVC,,0.00,WeatherDisplay:10.37,2013-12-20 18:59:00,
2013-12-20 14:00:00,52.3,52.3,30.13,SSW,206,1.2,3.5,100,0.00,OVC,,0.00,WeatherDisplay:10.37,2013-12-20 19:00:00,
2013-12-20 14:01:00,52.2,52.2,30.13,SSW,211,2.3,3.5,100,0.00,OVC,,0.00,WeatherDisplay:10.37,2013-12-20 19:01:00,
2013-12-20 14:03:00,52.2,52.2,30.13,SSW,195,1.8,3.5,100,0.00,OVC,,0.00,WeatherDisplay:10.37,2013-12-20 19:03:00,
2013-12-20 14:05:00,52.2,52.2,30.13,SSW,196,0.7,2.3,100,0.00,OVC,,0.00,WeatherDisplay:10.37,2013-12-20 19:05:00,
2013-12-20 14:06:00,52.1,52.1,30.12,SSW,196,0.0,2.3,100,0.00,OVC,,0.00,WeatherDisplay:10.37,2013-12-20 19:06:00,
2013-12-20 14:08:00,52.1,52.1,30.12,SW,222,0.7,2.0,100,0.00,OVC,,0.00,WeatherDisplay:10.37,2013-12-20 19:08:00,
2013-12-20 14:10:00,52.2,52.2,30.12,WSW,247,2.0,3.5,100,0.00,OVC,,0.00,WeatherDisplay:10.37,2013-12-20 19:10:00,
2013-12-20 14:11:00,52.2,52.2,30.12,WSW,247,2.2,3.5,100,0.00,OVC,,0.00,WeatherDisplay:10.37,2013-12-20 19:11:00,
2013-12-20 14:13:00,52.3,52.3,30.12,WSW,247,1.2,2.3,100,0.00,OVC,,0.00,WeatherDisplay:10.37,2013-12-20 19:13:00,
2013-12-20 14:14:00,52.3,52.3,30.12,WSW,247,0.0,0.0,100,0.00,OVC,,0.00,WeatherDisplay:10.37,2013-12-20 19:14:00,
2013-12-20 14:15:00,52.3,52.3,30.12,WSW,247,0.1,0.0,100,0.00,OVC,,0.00,WeatherDisplay:10.37,2013-12-20 19:15:00,
2013-12-20 14:16:00,52.3,52.3,30.12,WSW,247,1.8,2.0,100,0.00,OVC,,0.00,WeatherDisplay:10.37,2013-12-20 19:16:00,
2013-12-20 14:19:00,52.4,52.4,30.12,WSW,248,0.2,2.3,100,0.00,OVC,,0.00,WeatherDisplay:10.37,2013-12-20 19:19:00,
2013-12-20 14:20:00,52.4,52.4,30.12,WSW,248,0.0,0.0,100,0.00,OVC,,0.00,WeatherDisplay:10.37,2013-12-20 19:20:00,
2013-12-20 14:21:00,52.4,52.4,30.12,WSW,248,0.0,0.0,100,0.00,OVC,,0.00,WeatherDisplay:10.37,2013-12-20 19:21:00,
2013-12-20 14:22:00,52.5,52.5,30.12,WSW,247,0.4,2.0,100,0.00,OVC,,0.00,WeatherDisplay:10.37,2013-12-20 19:22:00,
2013-12-20 14:24:00,52.5,52.5,30.12,SSW,211,3.2,5.8,100,0.00,OVC,,0.00,WeatherDisplay:10.37,2013-12-20 19:24:00,
2013-12-20 14:25:00,52.5,52.5,30.12,SSW,207,5.0,5.8,100,0.00,OVC,,0.00,WeatherDisplay:10.37,2013-12-20 19:25:00,
2013-12-20 14:26:00,52.5,52.5,30.12,SSW,204,2.9,8.1,100,0.00,OVC,,0.00,WeatherDisplay:10.37,2013-12-20 19:26:00,
2013-12-20 14:27:00,52.5,52.5,30.12,SW,225,2.7,3.5,100,0.00,OVC,,0.00,WeatherDisplay:10.37,2013-12-20 19:27:00,
2013-12-20 14:29:00,52.5,52.5,30.12,SSW,207,0.3,4.0,100,0.00,OVC,,0.00,WeatherDisplay:10.37,2013-12-20 19:29:00,
2013-12-20 14:30:00,52.4,52.4,30.12,South,190,1.4,3.5,100,0.00,OVC,,0.00,WeatherDisplay:10.37,2013-12-20 19:30:00,
2013-12-20 14:31:00,52.5,52.5,30.12,South,190,0.5,3.5,100,0.00,OVC,,0.00,WeatherDisplay:10.37,2013-12-20 19:31:00,
2013-12-20 14:32:00,52.5,52.5,30.12,South,190,0.1,3.5,100,0.00,OVC,,0.00,WeatherDisplay:10.37,2013-12-20 19:32:00,
2013-12-20 14:33:00,52.5,52.5,30.12,South,190,0.0,0.0,100,0.00,OVC,,0.00,WeatherDisplay:10.37,2013-12-20 19:33:00,
2013-12-20 14:34:00,52.5,52.5,30.12,South,190,0.1,2.3,100,0.00,OVC,,0.00,WeatherDisplay:10.37,2013-12-20 19:34:00,
2013-12-20 14:35:00,52.6,52.6,30.12,SSW,194,2.1,4.6,100,0.00,OVC,,0.00,WeatherDisplay:10.37,2013-12-20 19:35:00,
2013-12-20 14:36:00,52.6,52.6,30.12,SSW,195,2.8,4.6,100,0.00,OVC,,0.00,WeatherDisplay:10.37,2013-12-20 19:36:00,
2013-12-20 14:37:00,52.6,52.6,30.12,SSW,195,0.4,3.5,100,0.00,OVC,,0.00,WeatherDisplay:10.37,2013-12-20 19:37:00,
2013-12-20 14:38:00,52.7,52.7,30.12,SSW,195,0.0,0.0,100,0.00,OVC,,0.00,WeatherDisplay:10.37,2013-12-20 19:38:00,
2013-12-20 14:39:00,52.7,52.7,30.11,SE,138,1.4,2.0,100,0.00,OVC,,0.00,WeatherDisplay:10.37,2013-12-20 19:39:00,
2013-12-20 14:41:00,52.8,52.8,30.11,SSW,194,2.8,3.5,100,0.00,OVC,,0.00,WeatherDisplay:10.37,2013-12-20 19:41:00,
2013-12-20 14:42:00,52.8,52.8,30.11,SSW,199,2.8,4.0,100,0.00,OVC,,0.00,WeatherDisplay:10.37,2013-12-20 19:42:00,
2013-12-20 14:43:00,52.9,52.9,30.12,SSW,210,2.0,3.5,100,0.00,OVC,,0.00,WeatherDisplay:10.37,2013-12-20 19:43:00,
2013-12-20 14:44:00,52.9,52.9,30.11,SSW,212,0.9,2.3,100,0.00,OVC,,0.00,WeatherDisplay:10.37,2013-12-20 19:44:00,
2013-12-20 14:46:00,52.9,52.9,30.12,SSW,212,0.9,2.3,100,0.00,OVC,,0.00,WeatherDisplay:10.37,2013-12-20 19:46:00,
2013-12-20 14:47:00,53.0,53.0,30.12,SSW,212,1.1,3.5,100,0.00,OVC,,0.00,WeatherDisplay:10.37,2013-12-20 19:47:00,
2013-12-20 14:48:00,53.0,53.0,30.12,WSW,249,1.5,3.5,100,0.00,OVC,,0.00,WeatherDisplay:10.37,2013-12-20 19:48:00,
2013-12-20 14:49:00,53.0,53.0,30.12,WSW,246,2.4,3.5,100,0.00,OVC,,0.00,WeatherDisplay:10.37,2013-12-20 19:49:00,
2013-12-20 14:51:00,52.9,52.9,30.12,WSW,243,0.0,0.0,100,0.00,OVC,,0.00,WeatherDisplay:10.37,2013-12-20 19:51:00,
2013-12-20 14:52:00,52.9,52.9,30.12,SSW,199,0.9,2.0,100,0.00,OVC,,0.00,WeatherDisplay:10.37,2013-12-20 19:52:00,
2013-12-20 14:53:00,52.9,52.9,30.12,SW,214,3.7,5.0,100,0.00,OVC,,0.00,WeatherDisplay:10.37,2013-12-20 19:53:00,
2013-12-20 14:54:00,52.9,52.9,30.12,WSW,242,1.2,4.6,100,0.00,OVC,,0.00,WeatherDisplay:10.37,2013-12-20 19:54:00,
2013-12-20 14:55:00,52.9,52.9,30.12,WSW,246,1.1,3.5,100,0.00,OVC,,0.00,WeatherDisplay:10.37,2013-12-20 19:55:00,
2013-12-20 14:56:00,53.0,53.0,30.12,WSW,251,4.3,5.0,100,0.00,OVC,,0.00,WeatherDisplay:10.37,2013-12-20 19:56:00,
2013-12-20 14:57:00,53.0,53.0,30.12,WSW,240,2.2,4.6,100,0.00,OVC,,0.00,WeatherDisplay:10.37,2013-12-20 19:57:00,
2013-12-20 14:58:00,53.1,53.1,30.12,WSW,241,1.2,4.6,100,0.00,OVC,,0.00,WeatherDisplay:10.37,2013-12-20 19:58:00,
2013-12-20 14:59:00,53.1,53.1,30.12,WSW,246,2.5,3.5,100,0.00,OVC,,0.00,WeatherDisplay:10.37,2013-12-20 19:59:00,
2013-12-20 15:00:00,53.1,53.1,30.12,WSW,247,2.6,4.6,100,0.00,OVC,,0.00,WeatherDisplay:10.37,2013-12-20 20:00:00,
2013-12-20 15:02:00,53.2,53.2,30.12,WSW,246,0.0,1.0,100,0.00,OVC,,0.00,WeatherDisplay:10.37,2013-12-20 20:02:00,
2013-12-20 15:03:00,53.2,53.2,30.12,WSW,247,0.6,3.5,100,0.00,OVC,,0.00,WeatherDisplay:10.37,2013-12-20 20:03:00,
2013-12-20 15:05:00,53.2,53.2,30.12,WSW,247,0.0,0.0,100,0.00,OVC,,0.00,WeatherDisplay:10.37,2013-12-20 20:05:00,
2013-12-20 15:07:00,53.2,53.2,30.12,WSW,249,0.1,3.5,100,0.00,OVC,,0.00,WeatherDisplay:10.37,2013-12-20 20:07:00,
2013-12-20 15:08:00,53.3,53.3,30.12,WSW,254,2.4,4.0,100,0.00,OVC,,0.00,WeatherDisplay:10.37,2013-12-20 20:08:00,
2013-12-20 15:10:00,53.4,53.4,30.13,West,264,2.9,4.6,100,0.00,OVC,,0.00,WeatherDisplay:10.37,2013-12-20 20:10:00,
2013-12-20 15:11:00,53.5,53.5,30.12,West,261,2.5,3.5,100,0.00,OVC,,0.00,WeatherDisplay:10.37,2013-12-20 20:11:00,
2013-12-20 15:12:00,53.5,53.5,30.13,WSW,243,2.6,3.5,100,0.00,OVC,,0.00,WeatherDisplay:10.37,2013-12-20 20:12:00,
2013-12-20 15:13:00,53.5,53.5,30.13,SW,228,1.5,3.5,100,0.00,OVC,,0.00,WeatherDisplay:10.37,2013-12-20 20:13:00,
2013-12-20 15:15:00,53.5,53.5,30.13,SW,228,0.0,0.0,100,0.00,OVC,,0.00,WeatherDisplay:10.37,2013-12-20 20:15:00,
2013-12-20 15:16:00,53.5,53.5,30.13,SW,228,0.0,0.0,100,0.00,OVC,,0.00,WeatherDisplay:10.37,2013-12-20 20:16:00,
2013-12-20 15:17:00,53.5,53.5,30.13,SW,228,0.0,0.0,100,0.00,OVC,,0.00,WeatherDisplay:10.37,2013-12-20 20:17:00,
2013-12-20 15:18:00,53.5,53.5,30.12,SW,228,0.0,0.0,100,0.00,OVC,,0.00,WeatherDisplay:10.37,2013-12-20 20:18:00,
2013-12-20 15:19:00,53.5,53.5,30.12,SW,228,0.4,0.0,100,0.00,OVC,,0.00,WeatherDisplay:10.37,2013-12-20 20:19:00,
2013-12-20 15:20:00,53.5,53.5,30.12,SW,228,0.0,2.3,100,0.00,OVC,,0.00,WeatherDisplay:10.37,2013-12-20 20:20:00,
2013-12-20 15:21:00,53.5,53.5,30.12,SW,228,0.0,2.3,100,0.00,OVC,,0.00,WeatherDisplay:10.37,2013-12-20 20:21:00,
2013-12-20 15:22:00,53.4,53.4,30.12,SW,228,0.0,0.0,100,0.00,OVC,,0.00,WeatherDisplay:10.37,2013-12-20 20:22:00,
2013-12-20 15:23:00,53.4,53.4,30.12,SW,228,0.0,0.0,100,0.00,OVC,,0.00,WeatherDisplay:10.37,2013-12-20 20:23:00,
2013-12-20 15:24:00,53.4,53.4,30.12,SW,228,0.0,0.0,100,0.00,OVC,,0.00,WeatherDisplay:10.37,2013-12-20 20:24:00,
2013-12-20 15:25:00,53.4,53.4,30.12,SW,228,0.0,0.0,100,0.00,OVC,,0.00,WeatherDisplay:10.37,2013-12-20 20:25:00,
2013-12-20 15:26:00,53.4,53.4,30.12,SW,228,0.0,0.0,100,0.00,OVC,,0.00,WeatherDisplay:10.37,2013-12-20 20:26:00,
2013-12-20 15:28:00,53.4,53.4,30.13,SW,228,0.0,0.0,100,0.00,OVC,,0.00,WeatherDisplay:10.37,2013-12-20 20:28:00,
2013-12-20 15:29:00,53.3,53.3,30.12,SW,228,0.0,0.0,100,0.00,OVC,,0.00,WeatherDisplay:10.37,2013-12-20 20:29:00,
2013-12-20 15:30:00,53.3,53.3,30.12,SW,228,0.0,0.0,100,0.00,OVC,,0.00,WeatherDisplay:10.37,2013-12-20 20:30:00,
2013-12-20 15:32:00,53.3,53.3,30.12,SW,228,0.0,0.0,100,0.00,OVC,,0.00,WeatherDisplay:10.37,2013-12-20 20:32:00,
2013-12-20 15:33:00,53.2,53.2,30.12,SW,228,0.0,0.0,100,0.00,OVC,,0.00,WeatherDisplay:10.37,2013-12-20 20:33:00,
2013-12-20 15:35:00,53.2,53.2,30.12,SW,228,0.0,0.0,100,0.00,OVC,,0.00,WeatherDisplay:10.37,2013-12-20 20:35:00,
2013-12-20 15:37:00,53.1,53.1,30.12,SW,228,0.0,0.0,100,0.00,OVC,,0.00,WeatherDisplay:10.37,2013-12-20 20:37:00,
2013-12-20 15:39:00,53.1,53.1,30.12,SW,228,0.0,0.0,100,0.00,OVC,,0.00,WeatherDisplay:10.37,2013-12-20 20:39:00,
2013-12-20 15:40:00,53.1,53.1,30.12,SW,228,0.0,0.0,100,0.00,OVC,,0.00,WeatherDisplay:10.37,2013-12-20 20:40:00,
2013-12-20 15:41:00,53.0,53.0,30.12,SW,228,0.0,0.0,100,0.00,OVC,,0.00,WeatherDisplay:10.37,2013-12-20 20:41:00,
2013-12-20 15:42:00,53.0,53.0,30.12,SW,228,0.0,0.0,100,0.00,OVC,,0.00,WeatherDisplay:10.37,2013-12-20 20:42:00,
2013-12-20 15:44:00,53.0,53.0,30.12,SW,228,0.0,0.0,100,0.00,OVC,,0.00,WeatherDisplay:10.37,2013-12-20 20:44:00,
2013-12-20 15:45:00,53.0,53.0,30.12,SW,228,0.0,0.0,100,0.00,OVC,,0.00,WeatherDisplay:10.37,2013-12-20 20:45:00,
2013-12-20 15:46:00,53.0,53.0,30.12,SW,228,0.0,0.0,100,0.00,OVC,,0.00,WeatherDisplay:10.37,2013-12-20 20:46:00,
2013-12-20 15:47:00,52.9,52.9,30.12,SW,228,0.0,0.0,100,0.00,OVC,,0.00,WeatherDisplay:10.37,2013-12-20 20:47:00,
2013-12-20 15:49:00,52.9,52.9,30.12,SW,228,0.0,0.0,100,0.00,OVC,,0.00,WeatherDisplay:10.37,2013-12-20 20:49:00,
2013-12-20 15:51:00,52.9,52.9,30.12,SW,228,0.0,0.0,100,0.00,OVC,,0.00,WeatherDisplay:10.37,2013-12-20 20:51:00,
2013-12-20 15:52:00,52.8,52.8,30.11,SW,228,0.0,0.0,100,0.00,OVC,,0.00,WeatherDisplay:10.37,2013-12-20 20:52:00,
2013-12-20 15:53:00,52.8,52.8,30.11,SW,228,0.0,0.0,100,0.00,OVC,,0.00,WeatherDisplay:10.37,2013-12-20 20:53:00,
2013-12-20 15:54:00,52.9,52.9,30.11,SW,228,0.0,0.0,100,0.00,OVC,,0.00,WeatherDisplay:10.37,2013-12-20 20:54:00,
2013-12-20 15:56:00,52.8,52.8,30.11,SW,228,0.0,0.0,100,0.00,OVC,,0.00,WeatherDisplay:10.37,2013-12-20 20:56:00,
2013-12-20 15:57:00,52.8,52.8,30.11,SW,228,0.0,0.0,100,0.00,OVC,,0.00,WeatherDisplay:10.37,2013-12-20 20:57:00,
2013-12-20 15:58:00,52.8,52.8,30.11,SW,228,0.0,0.0,100,0.00,OVC,,0.00,WeatherDisplay:10.37,2013-12-20 20:58:00,
2013-12-20 15:59:00,52.9,52.9,30.11,SW,228,0.0,0.0,100,0.00,OVC,,0.00,WeatherDisplay:10.37,2013-12-20 20:59:00,
2013-12-20 16:01:00,52.9,52.9,30.11,SW,228,0.0,0.0,100,0.00,OVC,,0.00,WeatherDisplay:10.37,2013-12-20 21:01:00,
2013-12-20 16:02:00,52.9,52.9,30.11,SW,228,0.0,0.0,100,0.00,OVC,,0.00,WeatherDisplay:10.37,2013-12-20 21:02:00,
2013-12-20 16:03:00,52.9,52.9,30.12,SW,228,0.0,0.0,100,0.00,OVC,,0.00,WeatherDisplay:10.37,2013-12-20 21:03:00,
2013-12-20 16:04:00,52.8,52.8,30.12,SW,228,0.0,0.0,100,0.00,OVC,,0.00,WeatherDisplay:10.37,2013-12-20 21:04:00,
2013-12-20 16:06:00,52.8,52.8,30.12,SW,228,0.0,0.0,100,0.00,OVC,,0.00,WeatherDisplay:10.37,2013-12-20 21:06:00,
2013-12-20 16:08:00,52.8,52.8,30.12,SW,228,0.0,0.0,100,0.00,OVC,,0.00,WeatherDisplay:10.37,2013-12-20 21:08:00,
2013-12-20 16:09:00,52.8,52.8,30.12,SW,228,0.0,0.0,100,0.00,OVC,,0.00,WeatherDisplay:10.37,2013-12-20 21:09:00,
2013-12-20 16:11:00,52.8,52.8,30.12,SW,228,0.0,0.0,100,0.00,OVC,,0.00,WeatherDisplay:10.37,2013-12-20 21:11:00,
2013-12-20 16:13:00,52.9,52.9,30.12,SW,228,0.0,0.0,100,0.00,OVC,,0.00,WeatherDisplay:10.37,2013-12-20 21:13:00,
2013-12-20 16:14:00,52.8,52.8,30.12,SW,228,0.0,0.0,100,0.00,OVC,,0.00,WeatherDisplay:10.37,2013-12-20 21:14:00,
2013-12-20 16:15:00,52.8,52.8,30.12,SW,228,0.0,0.0,100,0.00,OVC,,0.00,WeatherDisplay:10.37,2013-12-20 21:15:00,
2013-12-20 16:16:00,52.8,52.8,30.12,SW,228,0.0,0.0,100,0.00,OVC,,0.00,WeatherDisplay:10.37,2013-12-20 21:16:00,
2013-12-20 16:17:00,52.8,52.8,30.12,SW,228,0.0,0.0,100,0.00,OVC,,0.00,WeatherDisplay:10.37,2013-12-20 21:17:00,
2013-12-20 16:18:00,52.8,52.8,30.12,SW,228,0.0,0.0,100,0.00,OVC,,0.00,WeatherDisplay:10.37,2013-12-20 21:18:00,
2013-12-20 16:19:00,52.8,52.8,30.12,SW,228,0.0,0.0,100,0.00,OVC,,0.00,WeatherDisplay:10.37,2013-12-20 21:19:00,
2013-12-20 16:20:00,52.8,52.8,30.12,SW,228,0.0,0.0,100,0.00,OVC,,0.00,WeatherDisplay:10.37,2013-12-20 21:20:00,
2013-12-20 16:21:00,52.8,52.8,30.12,SW,228,0.0,0.0,100,0.00,OVC,,0.00,WeatherDisplay:10.37,2013-12-20 21:21:00,
2013-12-20 16:23:00,52.8,52.8,30.12,SW,228,0.0,0.0,100,0.00,OVC,,0.00,WeatherDisplay:10.37,2013-12-20 21:23:00,
2013-12-20 16:24:00,52.9,52.9,30.12,SW,228,0.0,0.0,100,0.00,OVC,,0.00,WeatherDisplay:10.37,2013-12-20 21:24:00,
2013-12-20 16:25:00,52.9,52.9,30.12,SW,228,0.0,0.0,100,0.00,OVC,,0.00,WeatherDisplay:10.37,2013-12-20 21:25:00,
2013-12-20 16:27:00,52.9,52.9,30.12,SW,228,0.0,0.0,100,0.00,OVC,,0.00,WeatherDisplay:10.37,2013-12-20 21:27:00,
2013-12-20 16:28:00,52.9,52.9,30.12,SW,228,0.0,0.0,100,0.00,OVC,,0.00,WeatherDisplay:10.37,2013-12-20 21:28:00,
2013-12-20 16:29:00,52.9,52.9,30.12,SW,228,0.0,0.0,100,0.00,OVC,,0.00,WeatherDisplay:10.37,2013-12-20 21:29:00,
2013-12-20 16:31:00,52.9,52.9,30.12,SW,228,0.0,0.0,100,0.00,OVC,,0.00,WeatherDisplay:10.37,2013-12-20 21:31:00,
2013-12-20 16:32:00,52.8,52.8,30.12,SW,228,0.0,0.0,100,0.00,OVC,,0.00,WeatherDisplay:10.37,2013-12-20 21:32:00,
2013-12-20 16:33:00,52.8,52.8,30.12,SW,228,0.0,0.0,100,0.00,OVC,,0.00,WeatherDisplay:10.37,2013-12-20 21:33:00,
2013-12-20 16:34:00,52.8,52.8,30.12,SW,228,0.0,0.0,100,0.00,OVC,,0.00,WeatherDisplay:10.37,2013-12-20 21:34:00,
2013-12-20 16:35:00,52.8,52.8,30.12,SW,228,0.0,0.0,100,0.00,OVC,,0.00,WeatherDisplay:10.37,2013-12-20 21:35:00,
2013-12-20 16:36:00,52.8,52.8,30.11,SW,228,0.0,0.0,100,0.00,OVC,,0.00,WeatherDisplay:10.37,2013-12-20 21:36:00,
2013-12-20 16:37:00,52.8,52.8,30.11,SW,228,0.0,0.0,100,0.00,OVC,,0.00,WeatherDisplay:10.37,2013-12-20 21:37:00,
2013-12-20 16:38:00,52.8,52.8,30.11,SW,228,0.0,0.0,100,0.00,OVC,,0.00,WeatherDisplay:10.37,2013-12-20 21:38:00,
2013-12-20 16:39:00,52.8,52.8,30.11,SW,228,0.0,0.0,100,0.00,OVC,,0.00,WeatherDisplay:10.37,2013-12-20 21:39:00,
2013-12-20 16:41:00,52.8,52.8,30.11,SW,228,0.0,0.0,100,0.00,OVC,,0.00,WeatherDisplay:10.37,2013-12-20 21:41:00,
2013-12-20 16:42:00,52.8,52.8,30.11,SW,228,0.0,0.0,100,0.00,OVC,,0.00,WeatherDisplay:10.37,2013-12-20 21:42:00,
2013-12-20 16:43:00,52.8,52.8,30.11,SW,228,0.0,0.0,100,0.00,OVC,,0.00,WeatherDisplay:10.37,2013-12-20 21:43:00,
2013-12-20 16:44:00,52.8,52.8,30.11,SW,228,0.0,0.0,100,0.00,OVC,,0.00,WeatherDisplay:10.37,2013-12-20 21:44:00,
2013-12-20 16:45:00,52.8,52.8,30.11,SW,228,0.0,0.0,100,0.00,OVC,,0.00,WeatherDisplay:10.37,2013-12-20 21:45:00,
2013-12-20 16:46:00,52.8,52.8,30.11,SW,228,0.0,0.0,100,0.00,OVC,,0.00,WeatherDisplay:10.37,2013-12-20 21:46:00,
2013-12-20 16:48:00,52.8,52.8,30.11,SW,228,0.0,0.0,100,0.00,OVC,,0.00,WeatherDisplay:10.37,2013-12-20 21:48:00,
2013-12-20 16:49:00,52.8,52.8,30.11,SW,228,0.0,0.0,100,0.00,OVC,,0.00,WeatherDisplay:10.37,2013-12-20 21:49:00,
2013-12-20 16:50:00,52.8,52.8,30.11,SW,228,0.1,1.1,100,0.00,OVC,,0.00,WeatherDisplay:10.37,2013-12-20 21:50:00,
2013-12-20 16:51:00,52.7,52.7,30.11,SW,228,0.0,0.0,100,0.00,OVC,,0.00,WeatherDisplay:10.37,2013-12-20 21:51:00,
2013-12-20 16:52:00,52.7,52.7,30.12,SW,228,0.0,0.0,100,0.00,OVC,,0.00,WeatherDisplay:10.37,2013-12-20 21:52:00,
2013-12-20 16:53:00,52.7,52.7,30.12,SW,228,0.0,0.0,100,0.00,OVC,,0.00,WeatherDisplay:10.37,2013-12-20 21:53:00,
2013-12-20 16:54:00,52.7,52.7,30.12,SW,228,0.0,0.0,100,0.00,OVC,,0.00,WeatherDisplay:10.37,2013-12-20 21:54:00,
2013-12-20 16:56:00,52.7,52.7,30.12,SW,228,0.0,0.0,100,0.00,OVC,,0.00,WeatherDisplay:10.37,2013-12-20 21:56:00,
2013-12-20 16:57:00,52.6,52.6,30.12,SW,228,0.0,0.0,100,0.00,OVC,,0.00,WeatherDisplay:10.37,2013-12-20 21:57:00,
2013-12-20 16:58:00,52.6,52.6,30.12,SW,228,0.0,0.0,100,0.00,OVC,,0.00,WeatherDisplay:10.37,2013-12-20 21:58:00,
2013-12-20 17:00:00,52.6,52.6,30.12,SW,228,0.0,0.0,100,0.00,OVC,,0.00,WeatherDisplay:10.37,2013-12-20 22:00:00,
2013-12-20 17:01:00,52.6,52.6,30.12,SW,228,0.0,0.0,100,0.00,OVC,,0.00,WeatherDisplay:10.37,2013-12-20 22:01:00,
2013-12-20 17:03:00,52.5,52.5,30.11,SW,228,0.0,0.0,100,0.00,OVC,,0.00,WeatherDisplay:10.37,2013-12-20 22:03:00,
2013-12-20 17:05:00,52.5,52.5,30.11,SW,228,0.0,0.0,100,0.00,OVC,,0.00,WeatherDisplay:10.37,2013-12-20 22:05:00,
2013-12-20 17:06:00,52.5,52.5,30.11,SW,228,0.0,0.0,100,0.00,OVC,,0.00,WeatherDisplay:10.37,2013-12-20 22:06:00,
2013-12-20 17:08:00,52.4,52.4,30.12,SW,228,0.0,0.0,100,0.00,OVC,,0.00,WeatherDisplay:10.37,2013-12-20 22:08:00,
2013-12-20 17:10:00,52.4,52.4,30.11,SW,228,0.0,0.0,100,0.00,OVC,,0.00,WeatherDisplay:10.37,2013-12-20 22:10:00,
2013-12-20 17:11:00,52.4,52.4,30.11,SW,228,0.0,0.0,100,0.00,OVC,,0.00,WeatherDisplay:10.37,2013-12-20 22:11:00,
2013-12-20 17:12:00,52.3,52.3,30.11,SW,228,0.0,0.0,100,0.00,OVC,,0.00,WeatherDisplay:10.37,2013-12-20 22:12:00,
2013-12-20 17:13:00,52.3,52.3,30.11,SW,228,0.1,1.1,100,0.00,OVC,,0.00,WeatherDisplay:10.37,2013-12-20 22:13:00,
2013-12-20 17:15:00,52.3,52.3,30.11,SW,228,0.0,1.0,100,0.00,OVC,,0.00,WeatherDisplay:10.37,2013-12-20 22:15:00,
2013-12-20 17:16:00,52.3,52.3,30.11,SW,228,0.0,2.3,100,0.00,OVC,,0.00,WeatherDisplay:10.37,2013-12-20 22:16:00,
2013-12-20 17:17:00,52.2,52.2,30.11,SW,228,0.0,2.3,100,0.00,OVC,,0.00,WeatherDisplay:10.37,2013-12-20 22:17:00,
2013-12-20 17:18:00,52.2,52.2,30.11,SW,228,0.4,1.1,100,0.00,OVC,,0.00,WeatherDisplay:10.37,2013-12-20 22:18:00,
2013-12-20 17:19:00,52.2,52.2,30.11,SW,228,0.0,2.3,100,0.00,OVC,,0.00,WeatherDisplay:10.37,2013-12-20 22:19:00,
2013-12-20 17:20:00,52.2,52.2,30.11,SW,228,0.0,0.0,100,0.00,OVC,,0.00,WeatherDisplay:10.37,2013-12-20 22:20:00,
2013-12-20 17:22:00,52.2,52.2,30.11,SW,228,0.0,0.0,100,0.00,OVC,,0.00,WeatherDisplay:10.37,2013-12-20 22:22:00,
2013-12-20 17:23:00,52.2,52.2,30.11,SW,228,0.0,0.0,100,0.00,OVC,,0.00,WeatherDisplay:10.37,2013-12-20 22:23:00,
2013-12-20 17:24:00,52.2,52.2,30.11,SW,228,0.0,0.0,100,0.00,OVC,,0.00,WeatherDisplay:10.37,2013-12-20 22:24:00,
2013-12-20 17:26:00,52.2,52.2,30.11,SW,228,0.0,0.0,100,0.00,OVC,,0.00,WeatherDisplay:10.37,2013-12-20 22:26:00,
2013-12-20 17:27:00,52.1,52.1,30.11,SW,228,0.0,0.0,100,0.00,OVC,,0.00,WeatherDisplay:10.37,2013-12-20 22:27:00,
2013-12-20 17:28:00,52.1,52.1,30.12,SW,228,0.0,0.0,100,0.00,OVC,,0.00,WeatherDisplay:10.37,2013-12-20 22:28:00,
2013-12-20 17:29:00,52.1,52.1,30.12,SW,228,0.0,0.0,100,0.00,OVC,,0.00,WeatherDisplay:10.37,2013-12-20 22:29:00,
2013-12-20 17:31:00,52.1,52.1,30.12,SW,228,0.0,0.0,100,0.00,OVC,,0.00,WeatherDisplay:10.37,2013-12-20 22:31:00,
2013-12-20 17:32:00,52.1,52.1,30.12,SW,228,0.0,0.0,100,0.00,OVC,,0.00,WeatherDisplay:10.37,2013-12-20 22:32:00,
2013-12-20 17:33:00,52.1,52.1,30.12,SW,228,0.0,0.0,100,0.00,OVC,,0.00,WeatherDisplay:10.37,2013-12-20 22:33:00,
2013-12-20 17:34:00,52.0,52.0,30.12,SW,228,0.0,0.0,100,0.00,OVC,,0.00,WeatherDisplay:10.37,2013-12-20 22:34:00,
2013-12-20 17:36:00,52.0,52.0,30.12,SW,228,0.0,0.0,100,0.00,OVC,,0.00,WeatherDisplay:10.37,2013-12-20 22:36:00,
2013-12-20 17:37:00,52.0,52.0,30.12,SW,228,0.0,0.0,100,0.00,OVC,,0.00,WeatherDisplay:10.37,2013-12-20 22:37:00,
2013-12-20 17:38:00,52.0,52.0,30.12,SW,228,0.0,0.0,100,0.00,OVC,,0.00,WeatherDisplay:10.37,2013-12-20 22:38:00,
2013-12-20 17:39:00,51.9,51.9,30.12,SW,228,0.0,0.0,100,0.00,OVC,,0.00,WeatherDisplay:10.37,2013-12-20 22:39:00,
2013-12-20 17:41:00,51.9,51.9,30.12,SW,228,0.0,0.0,100,0.00,OVC,,0.00,WeatherDisplay:10.37,2013-12-20 22:41:00,
2013-12-20 17:42:00,51.9,51.9,30.12,SW,228,0.0,0.0,100,0.00,OVC,,0.00,WeatherDisplay:10.37,2013-12-20 22:42:00,
2013-12-20 17:43:00,51.9,51.9,30.12,SW,228,0.0,0.0,100,0.00,OVC,,0.00,WeatherDisplay:10.37,2013-12-20 22:43:00,
2013-12-20 17:44:00,51.9,51.9,30.12,SW,228,0.0,0.0,100,0.00,OVC,,0.00,WeatherDisplay:10.37,2013-12-20 22:44:00,
2013-12-20 17:46:00,51.8,51.8,30.12,SW,228,0.0,0.0,100,0.00,OVC,,0.00,WeatherDisplay:10.37,2013-12-20 22:46:00,
2013-12-20 17:47:00,51.8,51.8,30.11,SW,228,0.0,0.0,100,0.00,OVC,,0.00,WeatherDisplay:10.37,2013-12-20 22:47:00,
2013-12-20 17:49:00,51.8,51.8,30.11,SW,228,0.0,0.0,100,0.00,OVC,,0.00,WeatherDisplay:10.37,2013-12-20 22:49:00,
2013-12-20 17:50:00,51.7,51.7,30.11,SW,228,0.0,0.0,100,0.00,OVC,,0.00,WeatherDisplay:10.37,2013-12-20 22:50:00,
2013-12-20 17:51:00,51.7,51.7,30.11,SW,228,0.0,0.0,100,0.00,OVC,,0.00,WeatherDisplay:10.37,2013-12-20 22:51:00,
2013-12-20 17:52:00,51.7,51.7,30.11,SW,228,0.0,0.0,100,0.00,OVC,,0.00,WeatherDisplay:10.37,2013-12-20 22:52:00,
2013-12-20 17:54:00,51.6,51.6,30.11,SW,228,0.0,0.0,100,0.00,OVC,,0.00,WeatherDisplay:10.37,2013-12-20 22:54:00,
2013-12-20 17:55:00,51.6,51.6,30.11,SW,228,0.0,0.0,100,0.00,OVC,,0.00,WeatherDisplay:10.37,2013-12-20 22:55:00,
2013-12-20 17:56:00,51.6,51.6,30.11,SW,228,0.0,0.0,100,0.00,OVC,,0.00,WeatherDisplay:10.37,2013-12-20 22:56:00,
2013-12-20 17:57:00,51.5,51.5,30.11,SW,228,0.0,0.0,100,0.00,OVC,,0.00,WeatherDisplay:10.37,2013-12-20 22:57:00,
2013-12-20 17:59:00,51.4,51.4,30.11,SW,228,0.0,0.0,100,0.00,OVC,,0.00,WeatherDisplay:10.37,2013-12-20 22:59:00,
2013-12-20 18:00:00,51.4,51.4,30.11,SW,228,0.0,0.0,100,0.00,OVC,,0.00,WeatherDisplay:10.37,2013-12-20 23:00:00,
2013-12-20 18:01:00,51.4,51.4,30.12,SW,228,0.0,0.0,100,0.00,OVC,,0.00,WeatherDisplay:10.37,2013-12-20 23:01:00,
2013-12-20 18:02:00,51.4,51.4,30.12,SW,228,0.0,0.0,100,0.00,OVC,,0.00,WeatherDisplay:10.37,2013-12-20 23:02:00,
2013-12-20 18:03:00,51.3,51.3,30.12,SW,228,0.0,0.0,100,0.00,OVC,,0.00,WeatherDisplay:10.37,2013-12-20 23:03:00,
2013-12-20 18:04:00,51.3,51.3,30.12,SW,228,0.0,0.0,100,0.00,OVC,,0.00,WeatherDisplay:10.37,2013-12-20 23:04:00,
2013-12-20 18:05:00,51.3,51.3,30.12,SW,228,0.0,0.0,100,0.00,OVC,,0.00,WeatherDisplay:10.37,2013-12-20 23:05:00,
2013-12-20 18:06:00,51.3,51.3,30.12,SW,228,0.0,0.0,100,0.00,OVC,,0.00,WeatherDisplay:10.37,2013-12-20 23:06:00,
2013-12-20 18:07:00,51.3,51.3,30.12,SW,228,0.0,0.0,100,0.00,OVC,,0.00,WeatherDisplay:10.37,2013-12-20 23:07:00,
2013-12-20 18:08:00,51.3,51.3,30.12,SW,228,0.0,0.0,100,0.00,OVC,,0.00,WeatherDisplay:10.37,2013-12-20 23:08:00,
2013-12-20 18:09:00,51.3,51.3,30.12,SW,228,0.0,0.0,100,0.00,OVC,,0.00,WeatherDisplay:10.37,2013-12-20 23:09:00,
2013-12-20 18:10:00,51.3,51.3,30.12,SW,228,0.0,0.0,100,0.00,OVC,,0.00,WeatherDisplay:10.37,2013-12-20 23:10:00,
2013-12-20 18:11:00,51.3,51.3,30.12,SW,228,0.0,0.0,100,0.00,OVC,,0.00,WeatherDisplay:10.37,2013-12-20 23:11:00,
2013-12-20 18:12:00,51.3,51.3,30.12,SW,228,0.0,0.0,100,0.00,OVC,,0.00,WeatherDisplay:10.37,2013-12-20 23:12:00,
2013-12-20 18:13:00,51.3,51.3,30.12,SW,228,0.0,0.0,100,0.00,OVC,,0.00,WeatherDisplay:10.37,2013-12-20 23:13:00,
2013-12-20 18:14:00,51.2,51.2,30.11,SW,228,0.0,0.0,100,0.00,OVC,,0.00,WeatherDisplay:10.37,2013-12-20 23:14:00,
2013-12-20 18:16:00,51.2,51.2,30.11,SW,228,0.0,0.0,100,0.00,OVC,,0.00,WeatherDisplay:10.37,2013-12-20 23:16:00,
2013-12-20 18:17:00,51.2,51.2,30.11,SW,228,0.0,0.0,100,0.00,OVC,,0.00,WeatherDisplay:10.37,2013-12-20 23:17:00,
2013-12-20 18:19:00,51.2,51.2,30.11,SW,228,0.0,0.0,100,0.00,OVC,,0.00,WeatherDisplay:10.37,2013-12-20 23:19:00,
2013-12-20 18:21:00,51.1,51.1,30.11,SW,228,0.0,0.0,100,0.00,OVC,,0.00,WeatherDisplay:10.37,2013-12-20 23:21:00,
2013-12-20 18:22:00,51.0,51.0,30.12,SW,228,0.0,0.0,100,0.00,OVC,,0.00,WeatherDisplay:10.37,2013-12-20 23:22:00,
2013-12-20 18:24:00,50.9,50.9,30.12,SW,228,0.0,0.0,100,0.00,OVC,,0.00,WeatherDisplay:10.37,2013-12-20 23:24:00,
2013-12-20 18:26:00,50.8,50.8,30.12,SW,228,0.0,0.0,100,0.00,OVC,,0.00,WeatherDisplay:10.37,2013-12-20 23:26:00,
2013-12-20 18:27:00,50.8,50.8,30.12,SW,228,0.0,0.0,100,0.00,OVC,,0.00,WeatherDisplay:10.37,2013-12-20 23:27:00,
2013-12-20 18:29:00,50.7,50.7,30.11,SW,228,0.0,0.0,100,0.00,OVC,,0.00,WeatherDisplay:10.37,2013-12-20 23:29:00,
2013-12-20 18:30:00,50.7,50.7,30.11,SW,228,0.0,0.0,100,0.00,OVC,,0.00,WeatherDisplay:10.37,2013-12-20 23:30:00,
2013-12-20 18:31:00,50.7,50.7,30.11,SW,228,0.0,0.0,100,0.00,OVC,,0.00,WeatherDisplay:10.37,2013-12-20 23:31:00,
2013-12-20 18:32:00,50.7,50.7,30.11,SW,228,0.0,0.0,100,0.00,OVC,,0.00,WeatherDisplay:10.37,2013-12-20 23:32:00,
2013-12-20 18:33:00,50.7,50.7,30.11,SW,228,0.0,0.0,100,0.00,OVC,,0.00,WeatherDisplay:10.37,2013-12-20 23:33:00,
2013-12-20 18:34:00,50.7,50.7,30.11,SW,228,0.0,0.0,100,0.00,OVC,,0.00,WeatherDisplay:10.37,2013-12-20 23:34:00,
2013-12-20 18:35:00,50.7,50.7,30.11,SW,228,0.0,0.0,100,0.00,OVC,,0.00,WeatherDisplay:10.37,2013-12-20 23:35:00,
2013-12-20 18:37:00,50.6,50.6,30.12,SW,228,0.0,0.0,100,0.00,OVC,,0.00,WeatherDisplay:10.37,2013-12-20 23:37:00,
2013-12-20 18:38:00,50.5,50.5,30.12,SW,228,0.0,0.0,100,0.00,OVC,,0.00,WeatherDisplay:10.37,2013-12-20 23:38:00,
2013-12-20 18:39:00,50.5,50.5,30.12,SW,228,0.0,0.0,100,0.00,OVC,,0.00,WeatherDisplay:10.37,2013-12-20 23:39:00,
2013-12-20 18:40:00,50.5,50.5,30.12,SW,228,0.0,0.0,100,0.00,OVC,,0.00,WeatherDisplay:10.37,2013-12-20 23:40:00,
2013-12-20 18:42:00,50.4,50.4,30.12,SW,228,0.0,0.0,100,0.00,OVC,,0.00,WeatherDisplay:10.37,2013-12-20 23:42:00,
2013-12-20 18:43:00,50.4,50.4,30.12,SW,228,0.0,0.0,100,0.00,OVC,,0.00,WeatherDisplay:10.37,2013-12-20 23:43:00,
2013-12-20 18:45:00,50.4,50.4,30.12,SW,228,0.0,0.0,100,0.00,OVC,,0.00,WeatherDisplay:10.37,2013-12-20 23:45:00,
2013-12-20 18:46:00,50.4,50.4,30.12,SW,228,0.0,0.0,100,0.00,OVC,,0.00,WeatherDisplay:10.37,2013-12-20 23:46:00,
2013-12-20 18:48:00,50.4,50.4,30.12,SW,228,0.0,0.0,100,0.00,OVC,,0.00,WeatherDisplay:10.37,2013-12-20 23:48:00,
2013-12-20 18:50:00,50.4,50.4,30.12,SW,228,0.0,0.0,100,0.00,OVC,,0.00,WeatherDisplay:10.37,2013-12-20 23:50:00,
2013-12-20 18:52:00,50.3,50.3,30.12,SW,228,0.0,0.0,100,0.00,OVC,,0.00,WeatherDisplay:10.37,2013-12-20 23:52:00,
2013-12-20 18:53:00,50.3,50.3,30.12,SW,228,0.0,0.0,100,0.00,OVC,,0.00,WeatherDisplay:10.37,2013-12-20 23:53:00,
2013-12-20 18:55:00,50.3,50.3,30.12,SW,228,0.0,0.0,100,0.00,OVC,,0.00,WeatherDisplay:10.37,2013-12-20 23:55:00,
2013-12-20 18:57:00,50.3,50.3,30.12,SW,228,0.0,0.0,100,0.00,OVC,,0.00,WeatherDisplay:10.37,2013-12-20 23:57:00,
2013-12-20 18:58:00,50.3,50.3,30.12,SW,228,0.0,0.0,100,0.00,OVC,,0.00,WeatherDisplay:10.37,2013-12-20 23:58:00,
2013-12-20 18:59:00,50.4,50.4,30.12,SW,228,0.0,0.0,100,0.00,OVC,,0.00,WeatherDisplay:10.37,2013-12-20 23:59:00,
2013-12-20 19:00:00,50.4,50.4,30.12,SW,228,0.0,0.0,100,0.00,OVC,,0.00,WeatherDisplay:10.37,2013-12-21 00:00:00,
2013-12-20 19:02:00,50.4,50.4,30.12,SW,228,0.0,0.0,100,0.00,OVC,,0.00,WeatherDisplay:10.37,2013-12-21 00:02:00,
2013-12-20 19:03:00,50.4,50.4,30.12,SW,228,0.0,0.0,100,0.00,OVC,,0.00,WeatherDisplay:10.37,2013-12-21 00:03:00,
2013-12-20 19:04:00,50.5,50.5,30.12,SW,228,0.0,0.0,100,0.00,OVC,,0.00,WeatherDisplay:10.37,2013-12-21 00:04:00,
2013-12-20 19:05:00,50.5,50.5,30.12,SW,228,0.0,0.0,100,0.00,OVC,,0.00,WeatherDisplay:10.37,2013-12-21 00:05:00,
2013-12-20 19:07:00,50.5,50.5,30.12,SW,228,0.0,0.0,100,0.00,OVC,,0.00,WeatherDisplay:10.37,2013-12-21 00:07:00,
2013-12-20 19:08:00,50.5,50.5,30.12,SW,228,0.0,0.0,100,0.00,OVC,,0.00,WeatherDisplay:10.37,2013-12-21 00:08:00,
2013-12-20 19:09:00,50.5,50.5,30.12,SW,228,0.0,0.0,100,0.00,OVC,,0.00,WeatherDisplay:10.37,2013-12-21 00:09:00,
2013-12-20 19:10:00,50.5,50.5,30.12,SW,228,0.0,0.0,100,0.00,OVC,,0.00,WeatherDisplay:10.37,2013-12-21 00:10:00,
2013-12-20 19:12:00,50.5,50.5,30.12,SW,228,0.0,0.0,100,0.00,OVC,,0.00,WeatherDisplay:10.37,2013-12-21 00:12:00,
2013-12-20 19:13:00,50.5,50.5,30.12,SW,228,0.0,0.0,100,0.00,OVC,,0.00,WeatherDisplay:10.37,2013-12-21 00:13:00,
2013-12-20 19:14:00,50.5,50.5,30.12,SW,228,0.0,0.0,100,0.00,OVC,,0.00,WeatherDisplay:10.37,2013-12-21 00:14:00,
2013-12-20 19:15:00,50.5,50.5,30.12,SW,228,0.0,0.0,100,0.00,OVC,,0.00,WeatherDisplay:10.37,2013-12-21 00:15:00,
2013-12-20 19:17:00,50.6,50.6,30.12,SW,228,0.0,0.0,100,0.00,OVC,,0.00,WeatherDisplay:10.37,2013-12-21 00:17:00,
2013-12-20 19:18:00,50.6,50.6,30.12,SW,228,0.0,0.0,100,0.00,OVC,,0.00,WeatherDisplay:10.37,2013-12-21 00:18:00,
2013-12-20 19:19:00,50.6,50.6,30.12,SW,228,0.0,0.0,100,0.00,OVC,,0.00,WeatherDisplay:10.37,2013-12-21 00:19:00,
2013-12-20 19:20:00,50.6,50.6,30.12,SW,228,0.0,0.0,100,0.00,OVC,,0.00,WeatherDisplay:10.37,2013-12-21 00:20:00,
2013-12-20 19:23:00,50.6,50.6,30.12,SW,228,0.0,0.0,100,0.00,OVC,,0.00,WeatherDisplay:10.37,2013-12-21 00:23:00,
2013-12-20 19:24:00,50.6,50.6,30.12,SW,228,0.0,0.0,100,0.00,OVC,,0.00,WeatherDisplay:10.37,2013-12-21 00:24:00,
2013-12-20 19:25:00,50.5,50.5,30.12,SW,228,0.0,0.0,100,0.00,OVC,,0.00,WeatherDisplay:10.37,2013-12-21 00:25:00,
2013-12-20 19:28:00,50.5,50.5,30.12,SW,228,0.0,0.0,100,0.00,OVC,,0.00,WeatherDisplay:10.37,2013-12-21 00:28:00,
2013-12-20 19:29:00,50.5,50.5,30.12,SW,228,0.0,0.0,100,0.00,OVC,,0.00,WeatherDisplay:10.37,2013-12-21 00:29:00,
2013-12-20 19:30:00,50.6,50.6,30.12,SW,228,1.8,3.5,100,0.00,OVC,,0.00,WeatherDisplay:10.37,2013-12-21 00:30:00,
2013-12-20 19:31:00,50.6,50.6,30.12,SW,228,1.5,2.3,100,0.00,OVC,,0.00,WeatherDisplay:10.37,2013-12-21 00:31:00,
2013-12-20 19:34:00,50.6,50.6,30.12,SW,228,0.0,0.0,100,0.00,OVC,,0.00,WeatherDisplay:10.37,2013-12-21 00:34:00,
2013-12-20 19:36:00,50.6,50.6,30.12,SW,228,0.0,0.0,100,0.00,OVC,,0.00,WeatherDisplay:10.37,2013-12-21 00:36:00,
2013-12-20 19:39:00,50.6,50.6,30.13,SW,228,0.1,2.0,100,0.00,OVC,,0.00,WeatherDisplay:10.37,2013-12-21 00:39:00,
2013-12-20 19:41:00,50.7,50.7,30.13,SW,228,0.0,0.0,100,0.00,OVC,,0.00,WeatherDisplay:10.37,2013-12-21 00:41:00,
2013-12-20 19:44:00,50.8,50.8,30.13,SW,228,0.0,0.0,100,0.00,OVC,,0.00,WeatherDisplay:10.37,2013-12-21 00:44:00,
2013-12-20 19:45:00,50.8,50.8,30.13,SW,228,0.0,0.0,100,0.00,OVC,,0.00,WeatherDisplay:10.37,2013-12-21 00:45:00,
2013-12-20 19:46:00,50.8,50.8,30.13,SW,228,0.0,0.0,100,0.00,OVC,,0.00,WeatherDisplay:10.37,2013-12-21 00:46:00,
2013-12-20 19:47:00,50.8,50.8,30.13,SW,229,0.0,0.0,100,0.00,OVC,,0.00,WeatherDisplay:10.37,2013-12-21 00:47:00,
2013-12-20 19:49:00,50.8,50.8,30.13,SW,229,0.0,0.0,100,0.00,OVC,,0.00,WeatherDisplay:10.37,2013-12-21 00:49:00,
2013-12-20 19:50:00,50.8,50.8,30.13,SW,229,0.0,0.0,100,0.00,OVC,,0.00,WeatherDisplay:10.37,2013-12-21 00:50:00,
2013-12-20 19:51:00,50.9,50.9,30.13,SW,228,0.0,0.0,100,0.00,OVC,,0.00,WeatherDisplay:10.37,2013-12-21 00:51:00,
2013-12-20 19:52:00,50.8,50.8,30.13,SW,228,0.0,0.0,100,0.00,OVC,,0.00,WeatherDisplay:10.37,2013-12-21 00:52:00,
2013-12-20 19:55:00,50.8,50.8,30.13,SW,228,0.0,0.0,100,0.00,OVC,,0.00,WeatherDisplay:10.37,2013-12-21 00:55:00,
2013-12-20 19:56:00,50.9,50.9,30.13,SW,228,0.0,0.0,100,0.00,OVC,,0.00,WeatherDisplay:10.37,2013-12-21 00:56:00,
2013-12-20 19:57:00,50.8,50.8,30.13,SW,228,0.0,0.0,100,0.00,OVC,,0.00,WeatherDisplay:10.37,2013-12-21 00:57:00,
2013-12-20 20:00:00,50.8,50.8,30.13,SW,228,0.0,0.0,100,0.00,OVC,,0.00,WeatherDisplay:10.37,2013-12-21 01:00:00,
2013-12-20 20:01:00,50.8,50.8,30.13,SW,228,0.0,0.0,100,0.00,OVC,,0.00,WeatherDisplay:10.37,2013-12-21 01:01:00,
2013-12-20 20:02:00,50.8,50.8,30.13,SW,228,0.0,0.0,100,0.00,OVC,,0.00,WeatherDisplay:10.37,2013-12-21 01:02:00,
2013-12-20 20:05:00,50.8,50.8,30.13,SW,228,0.0,0.0,100,0.00,OVC,,0.00,WeatherDisplay:10.37,2013-12-21 01:05:00,
2013-12-20 20:06:00,50.8,50.8,30.13,SW,229,0.0,0.0,100,0.00,OVC,,0.00,WeatherDisplay:10.37,2013-12-21 01:06:00,
2013-12-20 20:07:00,50.8,50.8,30.13,SW,228,0.0,0.0,100,0.00,OVC,,0.00,WeatherDisplay:10.37,2013-12-21 01:07:00,
2013-12-20 20:08:00,50.8,50.8,30.13,SW,228,0.0,0.0,100,0.00,OVC,,0.00,WeatherDisplay:10.37,2013-12-21 01:08:00,
2013-12-20 20:09:00,50.8,50.8,30.13,SW,228,0.0,0.0,100,0.00,OVC,,0.00,WeatherDisplay:10.37,2013-12-21 01:09:00,
2013-12-20 20:11:00,50.7,50.7,30.13,SW,228,0.0,0.0,100,0.00,OVC,,0.00,WeatherDisplay:10.37,2013-12-21 01:11:00,
2013-12-20 20:12:00,50.7,50.7,30.13,SW,228,0.0,0.0,100,0.00,OVC,,0.00,WeatherDisplay:10.37,2013-12-21 01:12:00,
2013-12-20 20:13:00,50.7,50.7,30.13,SW,228,0.0,0.0,100,0.00,OVC,,0.00,WeatherDisplay:10.37,2013-12-21 01:13:00,
2013-12-20 20:14:00,50.7,50.7,30.13,SW,229,0.0,0.0,100,0.00,OVC,,0.00,WeatherDisplay:10.37,2013-12-21 01:14:00,
2013-12-20 20:16:00,50.6,50.6,30.13,SW,228,0.0,0.0,100,0.00,OVC,,0.00,WeatherDisplay:10.37,2013-12-21 01:16:00,
2013-12-20 20:17:00,50.7,50.7,30.13,SW,228,0.0,0.0,100,0.00,OVC,,0.00,WeatherDisplay:10.37,2013-12-21 01:17:00,
2013-12-20 20:18:00,50.6,50.6,30.13,SW,228,0.0,0.0,100,0.00,OVC,,0.00,WeatherDisplay:10.37,2013-12-21 01:18:00,
2013-12-20 20:20:00,50.6,50.6,30.13,SW,228,0.0,0.0,100,0.00,OVC,,0.00,WeatherDisplay:10.37,2013-12-21 01:20:00,
2013-12-20 20:22:00,50.6,50.6,30.13,SW,228,0.0,0.0,100,0.00,OVC,,0.00,WeatherDisplay:10.37,2013-12-21 01:22:00,
2013-12-20 20:23:00,50.6,50.6,30.13,SW,228,0.0,0.0,100,0.00,OVC,,0.00,WeatherDisplay:10.37,2013-12-21 01:23:00,
2013-12-20 20:25:00,50.6,50.6,30.12,SW,228,0.0,0.0,100,0.00,OVC,,0.00,WeatherDisplay:10.37,2013-12-21 01:25:00,
2013-12-20 20:27:00,50.6,50.6,30.12,SW,228,0.0,0.0,100,0.00,OVC,,0.00,WeatherDisplay:10.37,2013-12-21 01:27:00,
2013-12-20 20:28:00,50.6,50.6,30.13,SW,228,0.0,0.0,100,0.00,OVC,,0.00,WeatherDisplay:10.37,2013-12-21 01:28:00,
2013-12-20 20:31:00,50.5,50.5,30.13,SW,228,0.0,0.0,100,0.00,OVC,,0.00,WeatherDisplay:10.37,2013-12-21 01:31:00,
2013-12-20 20:32:00,50.6,50.6,30.13,SW,228,0.0,0.0,100,0.00,OVC,,0.00,WeatherDisplay:10.37,2013-12-21 01:32:00,
2013-12-20 20:33:00,50.6,50.6,30.13,SW,228,0.0,0.0,100,0.00,OVC,,0.00,WeatherDisplay:10.37,2013-12-21 01:33:00,
2013-12-20 20:34:00,50.6,50.6,30.13,SW,228,0.0,0.0,100,0.00,OVC,,0.00,WeatherDisplay:10.37,2013-12-21 01:34:00,
2013-12-20 20:36:00,50.6,50.6,30.13,SW,229,0.0,0.0,100,0.00,OVC,,0.00,WeatherDisplay:10.37,2013-12-21 01:36:00,
2013-12-20 20:37:00,50.6,50.6,30.13,SW,229,0.0,0.0,100,0.00,OVC,,0.00,WeatherDisplay:10.37,2013-12-21 01:37:00,
2013-12-20 20:38:00,50.6,50.6,30.13,SW,228,0.0,0.0,100,0.00,OVC,,0.00,WeatherDisplay:10.37,2013-12-21 01:38:00,
2013-12-20 20:40:00,50.6,50.6,30.13,SW,228,0.0,0.0,100,0.00,OVC,,0.00,WeatherDisplay:10.37,2013-12-21 01:40:00,
2013-12-20 20:42:00,50.6,50.6,30.13,SW,228,0.0,0.0,100,0.00,OVC,,0.00,WeatherDisplay:10.37,2013-12-21 01:42:00,
2013-12-20 20:43:00,50.6,50.6,30.13,SW,228,0.0,0.0,100,0.00,OVC,,0.00,WeatherDisplay:10.37,2013-12-21 01:43:00,
2013-12-20 20:44:00,50.6,50.6,30.13,SW,228,0.0,0.0,100,0.00,OVC,,0.00,WeatherDisplay:10.37,2013-12-21 01:44:00,
2013-12-20 20:45:00,50.6,50.6,30.13,SW,228,0.0,0.0,100,0.00,OVC,,0.00,WeatherDisplay:10.37,2013-12-21 01:45:00,
2013-12-20 20:47:00,50.6,50.6,30.13,SW,228,0.0,0.0,100,0.00,OVC,,0.00,WeatherDisplay:10.37,2013-12-21 01:47:00,
2013-12-20 20:48:00,50.6,50.6,30.13,SW,229,0.0,0.0,100,0.00,OVC,,0.00,WeatherDisplay:10.37,2013-12-21 01:48:00,
2013-12-20 20:50:00,50.6,50.6,30.13,SW,228,0.0,0.0,100,0.00,OVC,,0.00,WeatherDisplay:10.37,2013-12-21 01:50:00,
2013-12-20 20:52:00,50.6,50.6,30.13,SW,228,0.0,0.0,100,0.00,OVC,,0.00,WeatherDisplay:10.37,2013-12-21 01:52:00,
2013-12-20 20:53:00,50.6,50.6,30.13,SW,228,0.0,0.0,100,0.00,OVC,,0.00,WeatherDisplay:10.37,2013-12-21 01:53:00,
2013-12-20 20:55:00,50.6,50.6,30.13,SW,228,0.0,0.0,100,0.00,OVC,,0.00,WeatherDisplay:10.37,2013-12-21 01:55:00,
2013-12-20 20:57:00,50.6,50.6,30.13,SW,228,0.0,0.0,100,0.00,OVC,,0.00,WeatherDisplay:10.37,2013-12-21 01:57:00,
2013-12-20 20:58:00,50.6,50.6,30.13,SW,228,0.0,0.0,100,0.00,OVC,,0.00,WeatherDisplay:10.37,2013-12-21 01:58:00,
2013-12-20 21:00:00,50.6,50.6,30.13,SW,228,0.0,0.0,100,0.00,OVC,,0.00,WeatherDisplay:10.37,2013-12-21 02:00:00,
2013-12-20 21:01:00,50.6,50.6,30.13,SW,228,0.0,0.0,100,0.00,OVC,,0.00,WeatherDisplay:10.37,2013-12-21 02:01:00,
2013-12-20 21:03:00,50.6,50.6,30.13,SW,228,0.0,0.0,100,0.00,OVC,,0.00,WeatherDisplay:10.37,2013-12-21 02:03:00,
2013-12-20 21:04:00,50.6,50.6,30.13,SW,228,0.0,0.0,100,0.00,OVC,,0.00,WeatherDisplay:10.37,2013-12-21 02:04:00,
2013-12-20 21:06:00,50.6,50.6,30.13,SW,228,0.0,0.0,100,0.00,OVC,,0.00,WeatherDisplay:10.37,2013-12-21 02:06:00,
2013-12-20 21:08:00,50.7,50.7,30.12,SW,228,0.0,0.0,100,0.00,OVC,,0.00,WeatherDisplay:10.37,2013-12-21 02:08:00,
2013-12-20 21:09:00,50.7,50.7,30.12,SW,228,0.0,0.0,100,0.00,OVC,,0.00,WeatherDisplay:10.37,2013-12-21 02:09:00,
2013-12-20 21:11:00,50.7,50.7,30.12,SW,228,0.0,0.0,100,0.00,OVC,,0.00,WeatherDisplay:10.37,2013-12-21 02:11:00,
2013-12-20 21:13:00,50.7,50.7,30.12,SW,228,0.0,0.0,100,0.00,OVC,,0.00,WeatherDisplay:10.37,2013-12-21 02:13:00,
2013-12-20 21:14:00,50.7,50.7,30.13,SW,228,0.0,0.0,100,0.00,OVC,,0.00,WeatherDisplay:10.37,2013-12-21 02:14:00,
2013-12-20 21:16:00,50.7,50.7,30.12,SW,228,0.0,0.0,100,0.00,OVC,,0.00,WeatherDisplay:10.37,2013-12-21 02:16:00,
2013-12-20 21:17:00,50.7,50.7,30.13,SW,228,0.0,0.0,100,0.00,OVC,,0.00,WeatherDisplay:10.37,2013-12-21 02:17:00,
2013-12-20 21:19:00,50.6,50.6,30.12,SW,229,0.0,0.0,100,0.00,OVC,,0.00,WeatherDisplay:10.37,2013-12-21 02:19:00,
2013-12-20 21:20:00,50.7,50.7,30.13,SW,229,0.0,0.0,100,0.00,OVC,,0.00,WeatherDisplay:10.37,2013-12-21 02:20:00,
2013-12-20 21:21:00,50.7,50.7,30.12,SW,228,0.0,0.0,100,0.00,OVC,,0.00,WeatherDisplay:10.37,2013-12-21 02:21:00,
2013-12-20 21:22:00,50.7,50.7,30.12,SW,228,0.0,0.0,100,0.00,OVC,,0.00,WeatherDisplay:10.37,2013-12-21 02:22:00,
2013-12-20 21:24:00,50.7,50.7,30.12,SW,228,0.0,0.0,100,0.00,OVC,,0.00,WeatherDisplay:10.37,2013-12-21 02:24:00,
2013-12-20 21:25:00,50.6,50.6,30.12,SW,228,0.0,0.0,100,0.00,OVC,,0.00,WeatherDisplay:10.37,2013-12-21 02:25:00,
2013-12-20 21:26:00,50.6,50.6,30.12,SW,228,0.0,0.0,100,0.00,OVC,,0.00,WeatherDisplay:10.37,2013-12-21 02:26:00,
2013-12-20 21:27:00,50.6,50.6,30.12,SW,228,0.0,0.0,100,0.00,OVC,,0.00,WeatherDisplay:10.37,2013-12-21 02:27:00,
2013-12-20 21:29:00,50.6,50.6,30.12,SW,228,0.0,0.0,100,0.00,OVC,,0.00,WeatherDisplay:10.37,2013-12-21 02:29:00,
2013-12-20 21:30:00,50.6,50.6,30.12,SW,228,0.0,0.0,100,0.00,OVC,,0.00,WeatherDisplay:10.37,2013-12-21 02:30:00,
2013-12-20 21:32:00,50.6,50.6,30.12,SW,228,0.0,0.0,100,0.00,OVC,,0.00,WeatherDisplay:10.37,2013-12-21 02:32:00,
2013-12-20 21:34:00,50.6,50.6,30.12,SW,228,0.0,0.0,100,0.00,OVC,,0.00,WeatherDisplay:10.37,2013-12-21 02:34:00,
2013-12-20 21:35:00,50.6,50.6,30.12,SW,228,0.0,0.0,100,0.00,OVC,,0.00,WeatherDisplay:10.37,2013-12-21 02:35:00,
2013-12-20 21:36:00,50.6,50.6,30.12,SW,228,0.0,0.0,100,0.00,OVC,,0.00,WeatherDisplay:10.37,2013-12-21 02:36:00,
2013-12-20 21:37:00,50.6,50.6,30.12,SW,228,0.0,0.0,100,0.00,OVC,,0.00,WeatherDisplay:10.37,2013-12-21 02:37:00,
2013-12-20 21:38:00,50.6,50.6,30.12,SW,229,0.0,0.0,100,0.00,OVC,,0.00,WeatherDisplay:10.37,2013-12-21 02:38:00,
2013-12-20 21:39:00,50.7,50.7,30.12,SW,228,0.0,0.0,100,0.00,OVC,,0.00,WeatherDisplay:10.37,2013-12-21 02:39:00,
2013-12-20 21:40:00,50.7,50.7,30.12,SW,228,0.0,0.0,100,0.00,OVC,,0.00,WeatherDisplay:10.37,2013-12-21 02:40:00,
2013-12-20 21:41:00,50.6,50.6,30.12,SW,228,0.0,0.0,100,0.00,OVC,,0.00,WeatherDisplay:10.37,2013-12-21 02:41:00,
2013-12-20 21:43:00,50.7,50.7,30.12,SW,228,0.0,0.0,100,0.00,OVC,,0.00,WeatherDisplay:10.37,2013-12-21 02:43:00,
2013-12-20 21:44:00,50.7,50.7,30.12,SW,228,0.0,0.0,100,0.00,OVC,,0.00,WeatherDisplay:10.37,2013-12-21 02:44:00,
2013-12-20 21:45:00,50.7,50.7,30.12,SW,228,0.0,0.0,100,0.00,OVC,,0.00,WeatherDisplay:10.37,2013-12-21 02:45:00,
2013-12-20 21:46:00,50.7,50.7,30.12,SW,228,0.0,0.0,100,0.00,OVC,,0.00,WeatherDisplay:10.37,2013-12-21 02:46:00,
2013-12-20 21:48:00,50.6,50.6,30.12,SW,228,0.0,0.0,100,0.00,OVC,,0.00,WeatherDisplay:10.37,2013-12-21 02:48:00,
2013-12-20 21:49:00,50.7,50.7,30.12,SW,228,0.0,0.0,100,0.00,OVC,,0.00,WeatherDisplay:10.37,2013-12-21 02:49:00,
2013-12-20 21:51:00,50.7,50.7,30.12,SW,228,0.0,0.0,100,0.00,OVC,,0.00,WeatherDisplay:10.37,2013-12-21 02:51:00,
2013-12-20 21:53:00,50.7,50.7,30.12,SW,228,0.0,0.0,100,0.00,OVC,,0.00,WeatherDisplay:10.37,2013-12-21 02:53:00,
2013-12-20 21:54:00,50.7,50.7,30.12,SW,228,0.0,0.0,100,0.00,OVC,,0.00,WeatherDisplay:10.37,2013-12-21 02:54:00,
2013-12-20 21:55:00,50.7,50.7,30.12,SW,229,0.0,0.0,100,0.00,OVC,,0.00,WeatherDisplay:10.37,2013-12-21 02:55:00,
2013-12-20 21:56:00,50.7,50.7,30.12,SW,228,0.0,0.0,100,0.00,OVC,,0.00,WeatherDisplay:10.37,2013-12-21 02:56:00,
2013-12-20 21:58:00,50.7,50.7,30.13,SW,228,0.0,0.0,100,0.00,OVC,,0.00,WeatherDisplay:10.37,2013-12-21 02:58:00,
2013-12-20 22:00:00,50.7,50.7,30.12,SW,228,0.0,0.0,100,0.00,OVC,,0.00,WeatherDisplay:10.37,2013-12-21 03:00:00,
2013-12-20 22:01:00,50.7,50.7,30.12,SW,228,0.0,0.0,100,0.00,OVC,,0.00,WeatherDisplay:10.37,2013-12-21 03:01:00,
2013-12-20 22:02:00,50.7,50.7,30.12,SW,228,0.0,0.0,100,0.00,OVC,,0.00,WeatherDisplay:10.37,2013-12-21 03:02:00,
2013-12-20 22:03:00,50.7,50.7,30.12,SW,228,0.0,0.0,100,0.00,OVC,,0.00,WeatherDisplay:10.37,2013-12-21 03:03:00,
2013-12-20 22:05:00,50.6,50.6,30.12,SW,228,0.0,0.0,100,0.00,OVC,,0.00,WeatherDisplay:10.37,2013-12-21 03:05:00,
2013-12-20 22:06:00,50.6,50.6,30.12,SW,228,0.0,0.0,100,0.00,OVC,,0.00,WeatherDisplay:10.37,2013-12-21 03:06:00,
2013-12-20 22:07:00,50.6,50.6,30.12,SW,228,0.0,0.0,100,0.00,OVC,,0.00,WeatherDisplay:10.37,2013-12-21 03:07:00,
2013-12-20 22:08:00,50.6,50.6,30.12,SW,228,0.0,0.0,100,0.00,OVC,,0.00,WeatherDisplay:10.37,2013-12-21 03:08:00,
2013-12-20 22:09:00,50.6,50.6,30.12,SW,229,0.0,0.0,100,0.00,OVC,,0.00,WeatherDisplay:10.37,2013-12-21 03:09:00,
2013-12-20 22:10:00,50.6,50.6,30.12,SW,228,0.0,0.0,100,0.00,OVC,,0.00,WeatherDisplay:10.37,2013-12-21 03:10:00,
2013-12-20 22:11:00,50.6,50.6,30.12,SW,229,0.0,0.0,100,0.00,OVC,,0.00,WeatherDisplay:10.37,2013-12-21 03:11:00,
2013-12-20 22:12:00,50.6,50.6,30.12,SW,228,0.0,0.0,100,0.00,OVC,,0.00,WeatherDisplay:10.37,2013-12-21 03:12:00,
2013-12-20 22:13:00,50.6,50.6,30.12,SW,228,0.0,0.0,100,0.00,OVC,,0.00,WeatherDisplay:10.37,2013-12-21 03:13:00,
2013-12-20 22:15:00,50.6,50.6,30.12,SW,228,0.0,0.0,100,0.00,OVC,,0.00,WeatherDisplay:10.37,2013-12-21 03:15:00,
2013-12-20 22:17:00,50.6,50.6,30.12,SW,228,0.0,0.0,100,0.00,OVC,,0.00,WeatherDisplay:10.37,2013-12-21 03:17:00,
2013-12-20 22:18:00,50.6,50.6,30.12,SW,229,0.0,0.0,100,0.00,OVC,,0.00,WeatherDisplay:10.37,2013-12-21 03:18:00,
2013-12-20 22:19:00,50.6,50.6,30.12,SW,228,0.0,0.0,100,0.00,OVC,,0.00,WeatherDisplay:10.37,2013-12-21 03:19:00,
2013-12-20 22:20:00,50.6,50.6,30.12,SW,228,0.0,0.0,100,0.00,OVC,,0.00,WeatherDisplay:10.37,2013-12-21 03:20:00,
2013-12-20 22:21:00,50.6,50.6,30.12,SW,228,0.0,0.0,100,0.00,OVC,,0.00,WeatherDisplay:10.37,2013-12-21 03:21:00,
2013-12-20 22:22:00,50.6,50.6,30.12,SW,228,0.0,0.0,100,0.00,OVC,,0.00,WeatherDisplay:10.37,2013-12-21 03:22:00,
2013-12-20 22:23:00,50.6,50.6,30.12,SW,228,0.0,0.0,100,0.00,OVC,,0.00,WeatherDisplay:10.37,2013-12-21 03:23:00,
2013-12-20 22:24:00,50.6,50.6,30.12,SW,228,0.0,0.0,100,0.00,OVC,,0.00,WeatherDisplay:10.37,2013-12-21 03:24:00,
2013-12-20 22:25:00,50.6,50.6,30.12,SW,228,0.0,0.0,100,0.00,OVC,,0.00,WeatherDisplay:10.37,2013-12-21 03:25:00,
2013-12-20 22:26:00,50.6,50.6,30.11,SW,228,0.0,0.0,100,0.00,OVC,,0.00,WeatherDisplay:10.37,2013-12-21 03:26:00,
2013-12-20 22:27:00,50.6,50.6,30.11,SW,228,0.0,0.0,100,0.00,OVC,,0.00,WeatherDisplay:10.37,2013-12-21 03:27:00,
2013-12-20 22:28:00,50.6,50.6,30.12,SW,229,0.0,0.0,100,0.00,OVC,,0.00,WeatherDisplay:10.37,2013-12-21 03:28:00,
2013-12-20 22:29:00,50.6,50.6,30.12,SW,228,0.0,0.0,100,0.00,OVC,,0.00,WeatherDisplay:10.37,2013-12-21 03:29:00,
2013-12-20 22:30:00,50.6,50.6,30.12,SW,228,0.0,0.0,100,0.00,OVC,,0.00,WeatherDisplay:10.37,2013-12-21 03:30:00,
2013-12-20 22:31:00,50.6,50.6,30.12,SW,228,0.0,0.0,100,0.00,OVC,,0.00,WeatherDisplay:10.37,2013-12-21 03:31:00,
2013-12-20 22:32:00,50.6,50.6,30.12,SW,228,0.0,0.0,100,0.00,OVC,,0.00,WeatherDisplay:10.37,2013-12-21 03:32:00,
2013-12-20 22:33:00,50.6,50.6,30.12,SW,228,0.0,0.0,100,0.00,OVC,,0.00,WeatherDisplay:10.37,2013-12-21 03:33:00,
2013-12-20 22:34:00,50.6,50.6,30.12,SW,228,0.0,0.0,100,0.00,OVC,,0.00,WeatherDisplay:10.37,2013-12-21 03:34:00,
2013-12-20 22:36:00,50.6,50.6,30.12,SW,228,0.0,0.0,100,0.00,OVC,,0.00,WeatherDisplay:10.37,2013-12-21 03:36:00,
2013-12-20 22:38:00,50.6,50.6,30.12,SW,228,0.0,0.0,100,0.00,OVC,,0.00,WeatherDisplay:10.37,2013-12-21 03:38:00,
2013-12-20 22:40:00,50.6,50.6,30.12,SW,228,0.0,0.0,100,0.00,OVC,,0.00,WeatherDisplay:10.37,2013-12-21 03:40:00,
2013-12-20 22:41:00,50.6,50.6,30.12,SW,228,0.0,0.0,100,0.00,OVC,,0.00,WeatherDisplay:10.37,2013-12-21 03:41:00,
2013-12-20 22:42:00,50.6,50.6,30.12,SW,229,0.0,0.0,100,0.00,OVC,,0.00,WeatherDisplay:10.37,2013-12-21 03:42:00,
2013-12-20 22:43:00,50.6,50.6,30.12,SW,228,0.0,0.0,100,0.00,OVC,,0.00,WeatherDisplay:10.37,2013-12-21 03:43:00,
2013-12-20 22:44:00,50.6,50.6,30.12,SW,228,0.0,0.0,100,0.00,OVC,,0.00,WeatherDisplay:10.37,2013-12-21 03:44:00,
2013-12-20 22:45:00,50.6,50.6,30.12,SW,228,0.0,0.0,100,0.00,OVC,,0.00,WeatherDisplay:10.37,2013-12-21 03:45:00,
2013-12-20 22:46:00,50.6,50.6,30.12,SW,228,0.0,0.0,100,0.00,OVC,,0.00,WeatherDisplay:10.37,2013-12-21 03:46:00,
2013-12-20 22:47:00,50.6,50.6,30.12,SW,228,0.0,0.0,100,0.00,OVC,,0.00,WeatherDisplay:10.37,2013-12-21 03:47:00,
2013-12-20 22:48:00,50.6,50.6,30.12,SW,228,0.0,0.0,100,0.00,OVC,,0.00,WeatherDisplay:10.37,2013-12-21 03:48:00,
2013-12-20 22:49:00,50.6,50.6,30.12,SW,229,0.0,0.0,100,0.00,OVC,,0.00,WeatherDisplay:10.37,2013-12-21 03:49:00,
2013-12-20 22:50:00,50.6,50.6,30.12,SW,228,0.0,0.0,100,0.00,OVC,,0.00,WeatherDisplay:10.37,2013-12-21 03:50:00,
2013-12-20 22:51:00,50.6,50.6,30.12,SW,228,0.0,0.0,100,0.00,OVC,,0.00,WeatherDisplay:10.37,2013-12-21 03:51:00,
2013-12-20 22:53:00,50.6,50.6,30.12,SW,228,0.0,0.0,100,0.00,OVC,,0.00,WeatherDisplay:10.37,2013-12-21 03:53:00,
2013-12-20 22:54:00,50.7,50.7,30.12,SW,228,0.0,0.0,100,0.00,OVC,,0.00,WeatherDisplay:10.37,2013-12-21 03:54:00,
2013-12-20 22:55:00,50.7,50.7,30.12,SW,228,0.0,0.0,100,0.00,OVC,,0.00,WeatherDisplay:10.37,2013-12-21 03:55:00,
2013-12-20 22:56:00,50.7,50.7,30.12,SW,228,0.0,0.0,100,0.00,OVC,,0.00,WeatherDisplay:10.37,2013-12-21 03:56:00,
2013-12-20 22:58:00,50.7,50.7,30.12,SW,228,0.0,0.0,100,0.00,OVC,,0.00,WeatherDisplay:10.37,2013-12-21 03:58:00,
2013-12-20 23:00:00,50.7,50.7,30.12,SW,228,0.0,0.0,100,0.00,-RA,,0.00,WeatherDisplay:10.37,2013-12-21 04:00:00,
2013-12-20 23:02:00,50.7,50.7,30.12,SW,228,0.0,0.0,100,0.00,-RA,,0.00,WeatherDisplay:10.37,2013-12-21 04:02:00,
2013-12-20 23:03:00,50.7,50.7,30.12,SW,228,0.0,0.0,100,0.00,-RA,,0.00,WeatherDisplay:10.37,2013-12-21 04:03:00,
2013-12-20 23:04:00,50.7,50.7,30.12,SW,228,0.0,0.0,100,0.00,-RA,,0.00,WeatherDisplay:10.37,2013-12-21 04:04:00,
2013-12-20 23:05:00,50.7,50.7,30.12,SW,228,0.0,0.0,100,0.00,-RA,,0.00,WeatherDisplay:10.37,2013-12-21 04:05:00,
2013-12-20 23:06:00,50.7,50.7,30.12,SW,228,0.0,0.0,100,0.00,-RA,,0.00,WeatherDisplay:10.37,2013-12-21 04:06:00,
2013-12-20 23:07:00,50.7,50.7,30.12,SW,228,0.0,0.0,100,0.00,-RA,,0.00,WeatherDisplay:10.37,2013-12-21 04:07:00,
2013-12-20 23:08:00,50.7,50.7,30.12,SW,228,0.0,0.0,100,0.00,-RA,,0.00,WeatherDisplay:10.37,2013-12-21 04:08:00,
2013-12-20 23:09:00,50.7,50.7,30.12,SW,228,0.0,0.0,100,0.00,-RA,,0.00,WeatherDisplay:10.37,2013-12-21 04:09:00,
2013-12-20 23:10:00,50.7,50.7,30.11,SW,228,0.0,0.0,100,0.00,-RA,,0.00,WeatherDisplay:10.37,2013-12-21 04:10:00,
2013-12-20 23:11:00,50.7,50.7,30.11,SW,228,0.0,0.0,100,0.00,-RA,,0.00,WeatherDisplay:10.37,2013-12-21 04:11:00,
2013-12-20 23:12:00,50.7,50.7,30.11,SW,228,0.0,0.0,100,0.00,-RA,,0.00,WeatherDisplay:10.37,2013-12-21 04:12:00,
2013-12-20 23:13:00,50.7,50.7,30.11,SW,229,0.0,0.0,100,0.00,-RA,,0.00,WeatherDisplay:10.37,2013-12-21 04:13:00,
2013-12-20 23:14:00,50.7,50.7,30.11,SW,229,0.0,0.0,100,0.00,-RA,,0.00,WeatherDisplay:10.37,2013-12-21 04:14:00,
2013-12-20 23:15:00,50.7,50.7,30.11,SW,228,0.0,0.0,100,0.00,-RA,,0.00,WeatherDisplay:10.37,2013-12-21 04:15:00,
2013-12-20 23:16:00,50.7,50.7,30.11,SW,228,0.0,0.0,100,0.00,-RA,,0.00,WeatherDisplay:10.37,2013-12-21 04:16:00,
2013-12-20 23:17:00,50.7,50.7,30.11,SW,229,0.0,0.0,100,0.00,-RA,,0.00,WeatherDisplay:10.37,2013-12-21 04:17:00,
2013-12-20 23:18:00,50.7,50.7,30.11,SW,229,0.0,0.0,100,0.00,-RA,,0.00,WeatherDisplay:10.37,2013-12-21 04:18:00,
2013-12-20 23:19:00,50.7,50.7,30.11,SW,228,0.0,0.0,100,0.00,-RA,,0.00,WeatherDisplay:10.37,2013-12-21 04:19:00,
2013-12-20 23:20:00,50.7,50.7,30.11,SW,228,0.0,0.0,100,0.00,-RA,,0.00,WeatherDisplay:10.37,2013-12-21 04:20:00,
2013-12-20 23:21:00,50.7,50.7,30.11,SW,228,0.0,0.0,100,0.00,-RA,,0.00,WeatherDisplay:10.37,2013-12-21 04:21:00,
2013-12-20 23:22:00,50.7,50.7,30.11,SW,228,0.0,0.0,100,0.00,-RA,,0.00,WeatherDisplay:10.37,2013-12-21 04:22:00,
2013-12-20 23:23:00,50.7,50.7,30.11,SW,229,0.0,0.0,100,0.00,-RA,,0.00,WeatherDisplay:10.37,2013-12-21 04:23:00,
2013-12-20 23:24:00,50.7,50.7,30.11,SW,228,0.0,0.0,100,0.00,-RA,,0.00,WeatherDisplay:10.37,2013-12-21 04:24:00,
2013-12-20 23:25:00,50.7,50.7,30.12,SW,228,0.0,0.0,100,0.00,-RA,,0.00,WeatherDisplay:10.37,2013-12-21 04:25:00,
2013-12-20 23:26:00,50.7,50.7,30.12,SW,228,0.0,0.0,100,0.00,-RA,,0.00,WeatherDisplay:10.37,2013-12-21 04:26:00,
2013-12-20 23:27:00,50.7,50.7,30.11,SW,228,0.0,0.0,100,0.00,-RA,,0.00,WeatherDisplay:10.37,2013-12-21 04:27:00,
2013-12-20 23:28:00,50.7,50.7,30.12,SW,228,0.0,0.0,100,0.00,-RA,,0.00,WeatherDisplay:10.37,2013-12-21 04:28:00,
2013-12-20 23:29:00,50.7,50.7,30.12,SW,228,0.0,0.0,100,0.00,-RA,,0.00,WeatherDisplay:10.37,2013-12-21 04:29:00,
2013-12-20 23:30:00,50.7,50.7,30.11,SW,228,0.0,0.0,100,0.00,-RA,,0.00,WeatherDisplay:10.37,2013-12-21 04:30:00,
2013-12-20 23:31:00,50.7,50.7,30.11,SW,228,0.0,0.0,100,0.00,-RA,,0.00,WeatherDisplay:10.37,2013-12-21 04:31:00,
2013-12-20 23:32:00,50.7,50.7,30.11,SW,228,0.0,0.0,100,0.00,-RA,,0.00,WeatherDisplay:10.37,2013-12-21 04:32:00,
2013-12-20 23:33:00,50.7,50.7,30.11,SW,228,0.0,0.0,100,0.00,-RA,,0.00,WeatherDisplay:10.37,2013-12-21 04:33:00,
2013-12-20 23:34:00,50.7,50.7,30.11,SW,228,0.0,0.0,100,0.00,-RA,,0.00,WeatherDisplay:10.37,2013-12-21 04:34:00,
2013-12-20 23:35:00,50.7,50.7,30.11,SW,229,0.0,0.0,100,0.00,-RA,,0.00,WeatherDisplay:10.37,2013-12-21 04:35:00,
2013-12-20 23:36:00,50.6,50.6,30.11,SW,228,0.0,0.0,100,0.00,-RA,,0.00,WeatherDisplay:10.37,2013-12-21 04:36:00,
2013-12-20 23:38:00,50.5,50.5,30.11,SW,228,0.0,0.0,100,0.00,-RA,,0.00,WeatherDisplay:10.37,2013-12-21 04:38:00,
2013-12-20 23:40:00,50.5,50.5,30.10,SW,228,0.0,0.0,100,0.00,-RA,,0.00,WeatherDisplay:10.37,2013-12-21 04:40:00,
2013-12-20 23:41:00,50.5,50.5,30.10,SW,228,0.0,1.1,100,0.00,-RA,,0.00,WeatherDisplay:10.37,2013-12-21 04:41:00,
2013-12-20 23:43:00,50.5,50.5,30.10,SW,228,0.0,0.0,100,0.00,-RA,,0.00,WeatherDisplay:10.37,2013-12-21 04:43:00,
2013-12-20 23:45:00,50.5,50.5,30.10,SW,228,0.0,0.0,100,0.00,-RA,,0.00,WeatherDisplay:10.37,2013-12-21 04:45:00,
2013-12-20 23:46:00,50.4,50.4,30.10,SW,228,0.0,0.0,100,0.00,-RA,,0.00,WeatherDisplay:10.37,2013-12-21 04:46:00,
2013-12-20 23:47:00,50.4,50.4,30.10,SW,228,0.0,0.0,100,0.00,-RA,,0.00,WeatherDisplay:10.37,2013-12-21 04:47:00,
2013-12-20 23:48:00,50.4,50.4,30.10,SW,228,0.0,0.0,100,0.00,-RA,,0.00,WeatherDisplay:10.37,2013-12-21 04:48:00,
2013-12-20 23:50:00,50.4,50.4,30.10,SW,228,0.0,0.0,100,0.00,-RA,,0.00,WeatherDisplay:10.37,2013-12-21 04:50:00,
2013-12-20 23:51:00,50.4,50.4,30.10,SW,228,0.0,0.0,100,0.00,-RA,,0.00,WeatherDisplay:10.37,2013-12-21 04:51:00,
2013-12-20 23:53:00,50.4,50.4,30.10,SW,228,0.0,0.0,100,0.00,-RA,,0.00,WeatherDisplay:10.37,2013-12-21 04:53:00,
2013-12-20 23:56:00,50.3,50.3,30.10,SW,228,0.0,0.0,100,0.00,-RA,,0.00,WeatherDisplay:10.37,2013-12-21 04:56:00,
2013-12-20 23:58:00,50.3,50.3,30.10,SW,228,0.0,0.0,100,0.00,-RA,,0.00,WeatherDisplay:10.37,2013-12-21 04:58:00,
2013-12-20 23:59:00,50.3,50.3,30.10,SW,228,0.0,0.0,100,0.00,-RA,,0.00,WeatherDisplay:10.37,2013-12-21 04:59:00,